<?xml version="1.0"?>
<gpx xmlns="http://www.topografix.com/GPX/1/1" xmlns:xsi="http://www.w3.org/2001/XMLSchema-instance" version="1.1" creator="GPX RubyGem 1.0.0 -- http://dougfales.github.io/gpx/" xsi:schemaLocation="http://www.topografix.com/GPX/1/1 http://www.topografix.com/GPX/1/1/gpx.xsd">
  <metadata>
    <name/>
    <time>2026-05-07T23:57:34+00:00</time>
    <bound minlat="90.0" minlon="180.0" maxlat="-90.0" maxlon="-180.0"/>
  </metadata>
  <trk>
    <name/>
    <trkseg>
      <trkpt lat="45.627765" lon="7.322571">
        <time>1970-01-01T00:00:00+00:00</time>
        <ele>1419.0</ele>
      </trkpt>
      <trkpt lat="45.627703" lon="7.322452">
        <time>1970-01-01T00:00:00+00:00</time>
        <ele>1418.0</ele>
      </trkpt>
      <trkpt lat="45.627693" lon="7.322391">
        <time>1970-01-01T00:00:00+00:00</time>
        <ele>1418.0</ele>
      </trkpt>
      <trkpt lat="45.627766" lon="7.322104">
        <time>1970-01-01T00:00:00+00:00</time>
        <ele>1418.0</ele>
      </trkpt>
      <trkpt lat="45.627737" lon="7.322015">
        <time>1970-01-01T00:00:00+00:00</time>
        <ele>1419.0</ele>
      </trkpt>
      <trkpt lat="45.627447" lon="7.321776">
        <time>1970-01-01T00:00:00+00:00</time>
        <ele>1433.0</ele>
      </trkpt>
      <trkpt lat="45.627403" lon="7.321745">
        <time>1970-01-01T00:00:00+00:00</time>
        <ele>1436.0</ele>
      </trkpt>
      <trkpt lat="45.62738" lon="7.321658">
        <time>1970-01-01T00:00:00+00:00</time>
        <ele>1441.0</ele>
      </trkpt>
      <trkpt lat="45.627381" lon="7.32154">
        <time>1970-01-01T00:00:00+00:00</time>
        <ele>1446.0</ele>
      </trkpt>
      <trkpt lat="45.627468" lon="7.321365">
        <time>1970-01-01T00:00:00+00:00</time>
        <ele>1450.0</ele>
      </trkpt>
      <trkpt lat="45.627521" lon="7.321048">
        <time>1970-01-01T00:00:00+00:00</time>
        <ele>1457.0</ele>
      </trkpt>
      <trkpt lat="45.627584" lon="7.320823">
        <time>1970-01-01T00:00:00+00:00</time>
        <ele>1461.0</ele>
      </trkpt>
      <trkpt lat="45.627633" lon="7.320758">
        <time>1970-01-01T00:00:00+00:00</time>
        <ele>1461.0</ele>
      </trkpt>
      <trkpt lat="45.627726" lon="7.320508">
        <time>1970-01-01T00:00:00+00:00</time>
        <ele>1465.0</ele>
      </trkpt>
      <trkpt lat="45.627821" lon="7.320366">
        <time>1970-01-01T00:00:00+00:00</time>
        <ele>1464.0</ele>
      </trkpt>
      <trkpt lat="45.627953" lon="7.320112">
        <time>1970-01-01T00:00:00+00:00</time>
        <ele>1469.0</ele>
      </trkpt>
      <trkpt lat="45.627952" lon="7.320004">
        <time>1970-01-01T00:00:00+00:00</time>
        <ele>1473.0</ele>
      </trkpt>
      <trkpt lat="45.627967" lon="7.319921">
        <time>1970-01-01T00:00:00+00:00</time>
        <ele>1474.0</ele>
      </trkpt>
      <trkpt lat="45.628044" lon="7.319779">
        <time>1970-01-01T00:00:00+00:00</time>
        <ele>1475.0</ele>
      </trkpt>
      <trkpt lat="45.628045" lon="7.319666">
        <time>1970-01-01T00:00:00+00:00</time>
        <ele>1477.0</ele>
      </trkpt>
      <trkpt lat="45.62807" lon="7.319599">
        <time>1970-01-01T00:00:00+00:00</time>
        <ele>1476.0</ele>
      </trkpt>
      <trkpt lat="45.628017" lon="7.319539">
        <time>1970-01-01T00:00:00+00:00</time>
        <ele>1480.0</ele>
      </trkpt>
      <trkpt lat="45.627987" lon="7.31956">
        <time>1970-01-01T00:00:00+00:00</time>
        <ele>1481.0</ele>
      </trkpt>
      <trkpt lat="45.627987" lon="7.319595">
        <time>1970-01-01T00:00:00+00:00</time>
        <ele>1481.0</ele>
      </trkpt>
      <trkpt lat="45.627969" lon="7.319587">
        <time>1970-01-01T00:00:00+00:00</time>
        <ele>1482.0</ele>
      </trkpt>
      <trkpt lat="45.627892" lon="7.319409">
        <time>1970-01-01T00:00:00+00:00</time>
        <ele>1487.0</ele>
      </trkpt>
      <trkpt lat="45.62789" lon="7.319319">
        <time>1970-01-01T00:00:00+00:00</time>
        <ele>1488.0</ele>
      </trkpt>
      <trkpt lat="45.627868" lon="7.319289">
        <time>1970-01-01T00:00:00+00:00</time>
        <ele>1489.0</ele>
      </trkpt>
      <trkpt lat="45.627778" lon="7.31937">
        <time>1970-01-01T00:00:00+00:00</time>
        <ele>1493.0</ele>
      </trkpt>
      <trkpt lat="45.627765" lon="7.319463">
        <time>1970-01-01T00:00:00+00:00</time>
        <ele>1493.0</ele>
      </trkpt>
      <trkpt lat="45.627778" lon="7.319537">
        <time>1970-01-01T00:00:00+00:00</time>
        <ele>1491.0</ele>
      </trkpt>
      <trkpt lat="45.62775" lon="7.319571">
        <time>1970-01-01T00:00:00+00:00</time>
        <ele>1491.0</ele>
      </trkpt>
      <trkpt lat="45.627711" lon="7.319537">
        <time>1970-01-01T00:00:00+00:00</time>
        <ele>1494.0</ele>
      </trkpt>
      <trkpt lat="45.62769" lon="7.319485">
        <time>1970-01-01T00:00:00+00:00</time>
        <ele>1496.0</ele>
      </trkpt>
      <trkpt lat="45.627591" lon="7.319409">
        <time>1970-01-01T00:00:00+00:00</time>
        <ele>1501.0</ele>
      </trkpt>
      <trkpt lat="45.627576" lon="7.319376">
        <time>1970-01-01T00:00:00+00:00</time>
        <ele>1502.0</ele>
      </trkpt>
      <trkpt lat="45.627582" lon="7.319206">
        <time>1970-01-01T00:00:00+00:00</time>
        <ele>1506.0</ele>
      </trkpt>
      <trkpt lat="45.627552" lon="7.319136">
        <time>1970-01-01T00:00:00+00:00</time>
        <ele>1508.0</ele>
      </trkpt>
      <trkpt lat="45.627505" lon="7.319111">
        <time>1970-01-01T00:00:00+00:00</time>
        <ele>1511.0</ele>
      </trkpt>
      <trkpt lat="45.627471" lon="7.318984">
        <time>1970-01-01T00:00:00+00:00</time>
        <ele>1515.0</ele>
      </trkpt>
      <trkpt lat="45.627386" lon="7.318863">
        <time>1970-01-01T00:00:00+00:00</time>
        <ele>1523.0</ele>
      </trkpt>
      <trkpt lat="45.627339" lon="7.318716">
        <time>1970-01-01T00:00:00+00:00</time>
        <ele>1529.0</ele>
      </trkpt>
      <trkpt lat="45.627243" lon="7.318601">
        <time>1970-01-01T00:00:00+00:00</time>
        <ele>1537.0</ele>
      </trkpt>
      <trkpt lat="45.627174" lon="7.318438">
        <time>1970-01-01T00:00:00+00:00</time>
        <ele>1546.0</ele>
      </trkpt>
      <trkpt lat="45.627117" lon="7.318113">
        <time>1970-01-01T00:00:00+00:00</time>
        <ele>1554.0</ele>
      </trkpt>
      <trkpt lat="45.627113" lon="7.317932">
        <time>1970-01-01T00:00:00+00:00</time>
        <ele>1559.0</ele>
      </trkpt>
      <trkpt lat="45.627124" lon="7.317731">
        <time>1970-01-01T00:00:00+00:00</time>
        <ele>1563.0</ele>
      </trkpt>
      <trkpt lat="45.627153" lon="7.317571">
        <time>1970-01-01T00:00:00+00:00</time>
        <ele>1564.0</ele>
      </trkpt>
      <trkpt lat="45.627129" lon="7.317494">
        <time>1970-01-01T00:00:00+00:00</time>
        <ele>1568.0</ele>
      </trkpt>
      <trkpt lat="45.627151" lon="7.317431">
        <time>1970-01-01T00:00:00+00:00</time>
        <ele>1567.0</ele>
      </trkpt>
      <trkpt lat="45.627166" lon="7.317184">
        <time>1970-01-01T00:00:00+00:00</time>
        <ele>1570.0</ele>
      </trkpt>
      <trkpt lat="45.627121" lon="7.317124">
        <time>1970-01-01T00:00:00+00:00</time>
        <ele>1575.0</ele>
      </trkpt>
      <trkpt lat="45.627078" lon="7.316973">
        <time>1970-01-01T00:00:00+00:00</time>
        <ele>1582.0</ele>
      </trkpt>
      <trkpt lat="45.627117" lon="7.316857">
        <time>1970-01-01T00:00:00+00:00</time>
        <ele>1580.0</ele>
      </trkpt>
      <trkpt lat="45.627036" lon="7.316815">
        <time>1970-01-01T00:00:00+00:00</time>
        <ele>1588.0</ele>
      </trkpt>
      <trkpt lat="45.627054" lon="7.316748">
        <time>1970-01-01T00:00:00+00:00</time>
        <ele>1587.0</ele>
      </trkpt>
      <trkpt lat="45.627004" lon="7.316754">
        <time>1970-01-01T00:00:00+00:00</time>
        <ele>1592.0</ele>
      </trkpt>
      <trkpt lat="45.626971" lon="7.316704">
        <time>1970-01-01T00:00:00+00:00</time>
        <ele>1595.0</ele>
      </trkpt>
      <trkpt lat="45.626959" lon="7.316617">
        <time>1970-01-01T00:00:00+00:00</time>
        <ele>1596.0</ele>
      </trkpt>
      <trkpt lat="45.62697" lon="7.316608">
        <time>1970-01-01T00:00:00+00:00</time>
        <ele>1595.0</ele>
      </trkpt>
      <trkpt lat="45.626945" lon="7.316562">
        <time>1970-01-01T00:00:00+00:00</time>
        <ele>1598.0</ele>
      </trkpt>
      <trkpt lat="45.627065" lon="7.316384">
        <time>1970-01-01T00:00:00+00:00</time>
        <ele>1588.0</ele>
      </trkpt>
      <trkpt lat="45.627023" lon="7.316277">
        <time>1970-01-01T00:00:00+00:00</time>
        <ele>1592.0</ele>
      </trkpt>
      <trkpt lat="45.627018" lon="7.316155">
        <time>1970-01-01T00:00:00+00:00</time>
        <ele>1594.0</ele>
      </trkpt>
      <trkpt lat="45.626998" lon="7.316157">
        <time>1970-01-01T00:00:00+00:00</time>
        <ele>1595.0</ele>
      </trkpt>
      <trkpt lat="45.626886" lon="7.31629">
        <time>1970-01-01T00:00:00+00:00</time>
        <ele>1603.0</ele>
      </trkpt>
      <trkpt lat="45.626772" lon="7.316371">
        <time>1970-01-01T00:00:00+00:00</time>
        <ele>1611.0</ele>
      </trkpt>
      <trkpt lat="45.626748" lon="7.31642">
        <time>1970-01-01T00:00:00+00:00</time>
        <ele>1612.0</ele>
      </trkpt>
      <trkpt lat="45.626722" lon="7.316489">
        <time>1970-01-01T00:00:00+00:00</time>
        <ele>1613.0</ele>
      </trkpt>
      <trkpt lat="45.626708" lon="7.316604">
        <time>1970-01-01T00:00:00+00:00</time>
        <ele>1614.0</ele>
      </trkpt>
      <trkpt lat="45.626717" lon="7.316771">
        <time>1970-01-01T00:00:00+00:00</time>
        <ele>1612.0</ele>
      </trkpt>
      <trkpt lat="45.626682" lon="7.316955">
        <time>1970-01-01T00:00:00+00:00</time>
        <ele>1615.0</ele>
      </trkpt>
      <trkpt lat="45.626654" lon="7.317046">
        <time>1970-01-01T00:00:00+00:00</time>
        <ele>1617.0</ele>
      </trkpt>
      <trkpt lat="45.626592" lon="7.317074">
        <time>1970-01-01T00:00:00+00:00</time>
        <ele>1623.0</ele>
      </trkpt>
      <trkpt lat="45.62657" lon="7.317158">
        <time>1970-01-01T00:00:00+00:00</time>
        <ele>1625.0</ele>
      </trkpt>
      <trkpt lat="45.626539" lon="7.317152">
        <time>1970-01-01T00:00:00+00:00</time>
        <ele>1628.0</ele>
      </trkpt>
      <trkpt lat="45.626531" lon="7.317127">
        <time>1970-01-01T00:00:00+00:00</time>
        <ele>1629.0</ele>
      </trkpt>
      <trkpt lat="45.626504" lon="7.317131">
        <time>1970-01-01T00:00:00+00:00</time>
        <ele>1631.0</ele>
      </trkpt>
      <trkpt lat="45.626461" lon="7.317175">
        <time>1970-01-01T00:00:00+00:00</time>
        <ele>1635.0</ele>
      </trkpt>
      <trkpt lat="45.626431" lon="7.317115">
        <time>1970-01-01T00:00:00+00:00</time>
        <ele>1638.0</ele>
      </trkpt>
      <trkpt lat="45.626432" lon="7.316992">
        <time>1970-01-01T00:00:00+00:00</time>
        <ele>1639.0</ele>
      </trkpt>
      <trkpt lat="45.62641" lon="7.316964">
        <time>1970-01-01T00:00:00+00:00</time>
        <ele>1641.0</ele>
      </trkpt>
      <trkpt lat="45.626333" lon="7.317152">
        <time>1970-01-01T00:00:00+00:00</time>
        <ele>1647.0</ele>
      </trkpt>
      <trkpt lat="45.626299" lon="7.317147">
        <time>1970-01-01T00:00:00+00:00</time>
        <ele>1649.0</ele>
      </trkpt>
      <trkpt lat="45.626287" lon="7.317068">
        <time>1970-01-01T00:00:00+00:00</time>
        <ele>1650.0</ele>
      </trkpt>
      <trkpt lat="45.626298" lon="7.317026">
        <time>1970-01-01T00:00:00+00:00</time>
        <ele>1650.0</ele>
      </trkpt>
      <trkpt lat="45.62628" lon="7.316999">
        <time>1970-01-01T00:00:00+00:00</time>
        <ele>1651.0</ele>
      </trkpt>
      <trkpt lat="45.626217" lon="7.317022">
        <time>1970-01-01T00:00:00+00:00</time>
        <ele>1654.0</ele>
      </trkpt>
      <trkpt lat="45.62617" lon="7.31707">
        <time>1970-01-01T00:00:00+00:00</time>
        <ele>1657.0</ele>
      </trkpt>
      <trkpt lat="45.626123" lon="7.31701">
        <time>1970-01-01T00:00:00+00:00</time>
        <ele>1661.0</ele>
      </trkpt>
      <trkpt lat="45.626104" lon="7.316924">
        <time>1970-01-01T00:00:00+00:00</time>
        <ele>1662.0</ele>
      </trkpt>
      <trkpt lat="45.626109" lon="7.31685">
        <time>1970-01-01T00:00:00+00:00</time>
        <ele>1663.0</ele>
      </trkpt>
      <trkpt lat="45.626138" lon="7.316764">
        <time>1970-01-01T00:00:00+00:00</time>
        <ele>1661.0</ele>
      </trkpt>
      <trkpt lat="45.626082" lon="7.316619">
        <time>1970-01-01T00:00:00+00:00</time>
        <ele>1666.0</ele>
      </trkpt>
      <trkpt lat="45.62608" lon="7.316566">
        <time>1970-01-01T00:00:00+00:00</time>
        <ele>1667.0</ele>
      </trkpt>
      <trkpt lat="45.626024" lon="7.316441">
        <time>1970-01-01T00:00:00+00:00</time>
        <ele>1672.0</ele>
      </trkpt>
      <trkpt lat="45.626017" lon="7.316367">
        <time>1970-01-01T00:00:00+00:00</time>
        <ele>1673.0</ele>
      </trkpt>
      <trkpt lat="45.626071" lon="7.316163">
        <time>1970-01-01T00:00:00+00:00</time>
        <ele>1672.0</ele>
      </trkpt>
      <trkpt lat="45.626099" lon="7.315949">
        <time>1970-01-01T00:00:00+00:00</time>
        <ele>1672.0</ele>
      </trkpt>
      <trkpt lat="45.626061" lon="7.315784">
        <time>1970-01-01T00:00:00+00:00</time>
        <ele>1676.0</ele>
      </trkpt>
      <trkpt lat="45.626086" lon="7.315675">
        <time>1970-01-01T00:00:00+00:00</time>
        <ele>1675.0</ele>
      </trkpt>
      <trkpt lat="45.626082" lon="7.31562">
        <time>1970-01-01T00:00:00+00:00</time>
        <ele>1676.0</ele>
      </trkpt>
      <trkpt lat="45.626057" lon="7.315611">
        <time>1970-01-01T00:00:00+00:00</time>
        <ele>1678.0</ele>
      </trkpt>
      <trkpt lat="45.626019" lon="7.315529">
        <time>1970-01-01T00:00:00+00:00</time>
        <ele>1681.0</ele>
      </trkpt>
      <trkpt lat="45.625988" lon="7.315527">
        <time>1970-01-01T00:00:00+00:00</time>
        <ele>1683.0</ele>
      </trkpt>
      <trkpt lat="45.625981" lon="7.315466">
        <time>1970-01-01T00:00:00+00:00</time>
        <ele>1684.0</ele>
      </trkpt>
      <trkpt lat="45.625947" lon="7.315405">
        <time>1970-01-01T00:00:00+00:00</time>
        <ele>1686.0</ele>
      </trkpt>
      <trkpt lat="45.62594" lon="7.315317">
        <time>1970-01-01T00:00:00+00:00</time>
        <ele>1687.0</ele>
      </trkpt>
      <trkpt lat="45.625898" lon="7.315153">
        <time>1970-01-01T00:00:00+00:00</time>
        <ele>1690.0</ele>
      </trkpt>
      <trkpt lat="45.625936" lon="7.315014">
        <time>1970-01-01T00:00:00+00:00</time>
        <ele>1686.0</ele>
      </trkpt>
      <trkpt lat="45.625905" lon="7.315011">
        <time>1970-01-01T00:00:00+00:00</time>
        <ele>1688.0</ele>
      </trkpt>
      <trkpt lat="45.625839" lon="7.31507">
        <time>1970-01-01T00:00:00+00:00</time>
        <ele>1693.0</ele>
      </trkpt>
      <trkpt lat="45.625812" lon="7.31513">
        <time>1970-01-01T00:00:00+00:00</time>
        <ele>1695.0</ele>
      </trkpt>
      <trkpt lat="45.625786" lon="7.315136">
        <time>1970-01-01T00:00:00+00:00</time>
        <ele>1697.0</ele>
      </trkpt>
      <trkpt lat="45.625763" lon="7.315029">
        <time>1970-01-01T00:00:00+00:00</time>
        <ele>1697.0</ele>
      </trkpt>
      <trkpt lat="45.625856" lon="7.31471">
        <time>1970-01-01T00:00:00+00:00</time>
        <ele>1691.0</ele>
      </trkpt>
      <trkpt lat="45.625799" lon="7.314535">
        <time>1970-01-01T00:00:00+00:00</time>
        <ele>1694.0</ele>
      </trkpt>
      <trkpt lat="45.625852" lon="7.314385">
        <time>1970-01-01T00:00:00+00:00</time>
        <ele>1693.0</ele>
      </trkpt>
      <trkpt lat="45.625934" lon="7.314224">
        <time>1970-01-01T00:00:00+00:00</time>
        <ele>1691.0</ele>
      </trkpt>
      <trkpt lat="45.625941" lon="7.314095">
        <time>1970-01-01T00:00:00+00:00</time>
        <ele>1693.0</ele>
      </trkpt>
      <trkpt lat="45.626097" lon="7.313301">
        <time>1970-01-01T00:00:00+00:00</time>
        <ele>1702.0</ele>
      </trkpt>
      <trkpt lat="45.6261" lon="7.313052">
        <time>1970-01-01T00:00:00+00:00</time>
        <ele>1707.0</ele>
      </trkpt>
      <trkpt lat="45.625825" lon="7.312641">
        <time>1970-01-01T00:00:00+00:00</time>
        <ele>1719.0</ele>
      </trkpt>
      <trkpt lat="45.625884" lon="7.312502">
        <time>1970-01-01T00:00:00+00:00</time>
        <ele>1720.0</ele>
      </trkpt>
      <trkpt lat="45.625987" lon="7.312443">
        <time>1970-01-01T00:00:00+00:00</time>
        <ele>1719.0</ele>
      </trkpt>
      <trkpt lat="45.626028" lon="7.31234">
        <time>1970-01-01T00:00:00+00:00</time>
        <ele>1720.0</ele>
      </trkpt>
      <trkpt lat="45.626046" lon="7.312186">
        <time>1970-01-01T00:00:00+00:00</time>
        <ele>1722.0</ele>
      </trkpt>
      <trkpt lat="45.626246" lon="7.311724">
        <time>1970-01-01T00:00:00+00:00</time>
        <ele>1730.0</ele>
      </trkpt>
      <trkpt lat="45.626292" lon="7.311463">
        <time>1970-01-01T00:00:00+00:00</time>
        <ele>1739.0</ele>
      </trkpt>
      <trkpt lat="45.626331" lon="7.311368">
        <time>1970-01-01T00:00:00+00:00</time>
        <ele>1740.0</ele>
      </trkpt>
      <trkpt lat="45.626408" lon="7.311291">
        <time>1970-01-01T00:00:00+00:00</time>
        <ele>1738.0</ele>
      </trkpt>
      <trkpt lat="45.626446" lon="7.311115">
        <time>1970-01-01T00:00:00+00:00</time>
        <ele>1740.0</ele>
      </trkpt>
      <trkpt lat="45.626318" lon="7.310729">
        <time>1970-01-01T00:00:00+00:00</time>
        <ele>1756.0</ele>
      </trkpt>
      <trkpt lat="45.62635" lon="7.310444">
        <time>1970-01-01T00:00:00+00:00</time>
        <ele>1759.0</ele>
      </trkpt>
      <trkpt lat="45.626193" lon="7.310302">
        <time>1970-01-01T00:00:00+00:00</time>
        <ele>1768.0</ele>
      </trkpt>
      <trkpt lat="45.626102" lon="7.31011">
        <time>1970-01-01T00:00:00+00:00</time>
        <ele>1775.0</ele>
      </trkpt>
      <trkpt lat="45.626041" lon="7.309809">
        <time>1970-01-01T00:00:00+00:00</time>
        <ele>1785.0</ele>
      </trkpt>
      <trkpt lat="45.626113" lon="7.309721">
        <time>1970-01-01T00:00:00+00:00</time>
        <ele>1785.0</ele>
      </trkpt>
      <trkpt lat="45.626235" lon="7.309813">
        <time>1970-01-01T00:00:00+00:00</time>
        <ele>1779.0</ele>
      </trkpt>
      <trkpt lat="45.626636" lon="7.30967">
        <time>1970-01-01T00:00:00+00:00</time>
        <ele>1796.0</ele>
      </trkpt>
      <trkpt lat="45.626483" lon="7.309368">
        <time>1970-01-01T00:00:00+00:00</time>
        <ele>1806.0</ele>
      </trkpt>
      <trkpt lat="45.625898" lon="7.309045">
        <time>1970-01-01T00:00:00+00:00</time>
        <ele>1808.0</ele>
      </trkpt>
      <trkpt lat="45.625528" lon="7.308492">
        <time>1970-01-01T00:00:00+00:00</time>
        <ele>1823.0</ele>
      </trkpt>
      <trkpt lat="45.625343" lon="7.308461">
        <time>1970-01-01T00:00:00+00:00</time>
        <ele>1827.0</ele>
      </trkpt>
      <trkpt lat="45.625062" lon="7.30828">
        <time>1970-01-01T00:00:00+00:00</time>
        <ele>1836.0</ele>
      </trkpt>
      <trkpt lat="45.625005" lon="7.308406">
        <time>1970-01-01T00:00:00+00:00</time>
        <ele>1835.0</ele>
      </trkpt>
      <trkpt lat="45.624833" lon="7.308205">
        <time>1970-01-01T00:00:00+00:00</time>
        <ele>1844.0</ele>
      </trkpt>
      <trkpt lat="45.624768" lon="7.308091">
        <time>1970-01-01T00:00:00+00:00</time>
        <ele>1848.0</ele>
      </trkpt>
      <trkpt lat="45.624716" lon="7.308423">
        <time>1970-01-01T00:00:00+00:00</time>
        <ele>1847.0</ele>
      </trkpt>
      <trkpt lat="45.624733" lon="7.308737">
        <time>1970-01-01T00:00:00+00:00</time>
        <ele>1842.0</ele>
      </trkpt>
      <trkpt lat="45.624661" lon="7.308697">
        <time>1970-01-01T00:00:00+00:00</time>
        <ele>1845.0</ele>
      </trkpt>
      <trkpt lat="45.62454" lon="7.308555">
        <time>1970-01-01T00:00:00+00:00</time>
        <ele>1848.0</ele>
      </trkpt>
      <trkpt lat="45.624494" lon="7.308453">
        <time>1970-01-01T00:00:00+00:00</time>
        <ele>1851.0</ele>
      </trkpt>
      <trkpt lat="45.624465" lon="7.308435">
        <time>1970-01-01T00:00:00+00:00</time>
        <ele>1852.0</ele>
      </trkpt>
      <trkpt lat="45.624415" lon="7.308333">
        <time>1970-01-01T00:00:00+00:00</time>
        <ele>1854.0</ele>
      </trkpt>
      <trkpt lat="45.624356" lon="7.308282">
        <time>1970-01-01T00:00:00+00:00</time>
        <ele>1855.0</ele>
      </trkpt>
      <trkpt lat="45.62424" lon="7.308115">
        <time>1970-01-01T00:00:00+00:00</time>
        <ele>1857.0</ele>
      </trkpt>
      <trkpt lat="45.624234" lon="7.308023">
        <time>1970-01-01T00:00:00+00:00</time>
        <ele>1859.0</ele>
      </trkpt>
      <trkpt lat="45.624207" lon="7.307974">
        <time>1970-01-01T00:00:00+00:00</time>
        <ele>1859.0</ele>
      </trkpt>
      <trkpt lat="45.62419" lon="7.307846">
        <time>1970-01-01T00:00:00+00:00</time>
        <ele>1861.0</ele>
      </trkpt>
      <trkpt lat="45.624158" lon="7.307784">
        <time>1970-01-01T00:00:00+00:00</time>
        <ele>1862.0</ele>
      </trkpt>
      <trkpt lat="45.62414" lon="7.307696">
        <time>1970-01-01T00:00:00+00:00</time>
        <ele>1864.0</ele>
      </trkpt>
      <trkpt lat="45.624107" lon="7.307667">
        <time>1970-01-01T00:00:00+00:00</time>
        <ele>1865.0</ele>
      </trkpt>
      <trkpt lat="45.624055" lon="7.307513">
        <time>1970-01-01T00:00:00+00:00</time>
        <ele>1872.0</ele>
      </trkpt>
      <trkpt lat="45.62401" lon="7.307433">
        <time>1970-01-01T00:00:00+00:00</time>
        <ele>1877.0</ele>
      </trkpt>
      <trkpt lat="45.623936" lon="7.307364">
        <time>1970-01-01T00:00:00+00:00</time>
        <ele>1883.0</ele>
      </trkpt>
      <trkpt lat="45.623844" lon="7.307214">
        <time>1970-01-01T00:00:00+00:00</time>
        <ele>1889.0</ele>
      </trkpt>
      <trkpt lat="45.623704" lon="7.307067">
        <time>1970-01-01T00:00:00+00:00</time>
        <ele>1897.0</ele>
      </trkpt>
      <trkpt lat="45.623677" lon="7.306976">
        <time>1970-01-01T00:00:00+00:00</time>
        <ele>1899.0</ele>
      </trkpt>
      <trkpt lat="45.623453" lon="7.306848">
        <time>1970-01-01T00:00:00+00:00</time>
        <ele>1909.0</ele>
      </trkpt>
      <trkpt lat="45.623216" lon="7.306915">
        <time>1970-01-01T00:00:00+00:00</time>
        <ele>1912.0</ele>
      </trkpt>
      <trkpt lat="45.623182" lon="7.30689">
        <time>1970-01-01T00:00:00+00:00</time>
        <ele>1913.0</ele>
      </trkpt>
      <trkpt lat="45.623224" lon="7.306715">
        <time>1970-01-01T00:00:00+00:00</time>
        <ele>1918.0</ele>
      </trkpt>
      <trkpt lat="45.623074" lon="7.306686">
        <time>1970-01-01T00:00:00+00:00</time>
        <ele>1920.0</ele>
      </trkpt>
      <trkpt lat="45.623065" lon="7.306656">
        <time>1970-01-01T00:00:00+00:00</time>
        <ele>1920.0</ele>
      </trkpt>
      <trkpt lat="45.623096" lon="7.306595">
        <time>1970-01-01T00:00:00+00:00</time>
        <ele>1923.0</ele>
      </trkpt>
      <trkpt lat="45.623064" lon="7.306591">
        <time>1970-01-01T00:00:00+00:00</time>
        <ele>1923.0</ele>
      </trkpt>
      <trkpt lat="45.623055" lon="7.306548">
        <time>1970-01-01T00:00:00+00:00</time>
        <ele>1924.0</ele>
      </trkpt>
      <trkpt lat="45.622965" lon="7.30649">
        <time>1970-01-01T00:00:00+00:00</time>
        <ele>1925.0</ele>
      </trkpt>
      <trkpt lat="45.622989" lon="7.306398">
        <time>1970-01-01T00:00:00+00:00</time>
        <ele>1929.0</ele>
      </trkpt>
      <trkpt lat="45.622944" lon="7.306402">
        <time>1970-01-01T00:00:00+00:00</time>
        <ele>1929.0</ele>
      </trkpt>
      <trkpt lat="45.622929" lon="7.30638">
        <time>1970-01-01T00:00:00+00:00</time>
        <ele>1930.0</ele>
      </trkpt>
      <trkpt lat="45.622952" lon="7.306307">
        <time>1970-01-01T00:00:00+00:00</time>
        <ele>1933.0</ele>
      </trkpt>
      <trkpt lat="45.622867" lon="7.306292">
        <time>1970-01-01T00:00:00+00:00</time>
        <ele>1934.0</ele>
      </trkpt>
      <trkpt lat="45.622903" lon="7.306197">
        <time>1970-01-01T00:00:00+00:00</time>
        <ele>1938.0</ele>
      </trkpt>
      <trkpt lat="45.622888" lon="7.306164">
        <time>1970-01-01T00:00:00+00:00</time>
        <ele>1939.0</ele>
      </trkpt>
      <trkpt lat="45.622869" lon="7.306002">
        <time>1970-01-01T00:00:00+00:00</time>
        <ele>1946.0</ele>
      </trkpt>
      <trkpt lat="45.62276" lon="7.305747">
        <time>1970-01-01T00:00:00+00:00</time>
        <ele>1956.0</ele>
      </trkpt>
      <trkpt lat="45.622551" lon="7.305395">
        <time>1970-01-01T00:00:00+00:00</time>
        <ele>1974.0</ele>
      </trkpt>
      <trkpt lat="45.622561" lon="7.305367">
        <time>1970-01-01T00:00:00+00:00</time>
        <ele>1976.0</ele>
      </trkpt>
      <trkpt lat="45.622544" lon="7.305309">
        <time>1970-01-01T00:00:00+00:00</time>
        <ele>1978.0</ele>
      </trkpt>
      <trkpt lat="45.62249" lon="7.305271">
        <time>1970-01-01T00:00:00+00:00</time>
        <ele>1979.0</ele>
      </trkpt>
      <trkpt lat="45.622453" lon="7.30513">
        <time>1970-01-01T00:00:00+00:00</time>
        <ele>1983.0</ele>
      </trkpt>
      <trkpt lat="45.622377" lon="7.305079">
        <time>1970-01-01T00:00:00+00:00</time>
        <ele>1983.0</ele>
      </trkpt>
      <trkpt lat="45.622417" lon="7.30495">
        <time>1970-01-01T00:00:00+00:00</time>
        <ele>1987.0</ele>
      </trkpt>
      <trkpt lat="45.622306" lon="7.304939">
        <time>1970-01-01T00:00:00+00:00</time>
        <ele>1987.0</ele>
      </trkpt>
      <trkpt lat="45.622221" lon="7.304869">
        <time>1970-01-01T00:00:00+00:00</time>
        <ele>1989.0</ele>
      </trkpt>
      <trkpt lat="45.622294" lon="7.304803">
        <time>1970-01-01T00:00:00+00:00</time>
        <ele>1992.0</ele>
      </trkpt>
      <trkpt lat="45.622275" lon="7.304741">
        <time>1970-01-01T00:00:00+00:00</time>
        <ele>1995.0</ele>
      </trkpt>
      <trkpt lat="45.62218" lon="7.304733">
        <time>1970-01-01T00:00:00+00:00</time>
        <ele>1995.0</ele>
      </trkpt>
      <trkpt lat="45.622194" lon="7.304669">
        <time>1970-01-01T00:00:00+00:00</time>
        <ele>1998.0</ele>
      </trkpt>
      <trkpt lat="45.622152" lon="7.304623">
        <time>1970-01-01T00:00:00+00:00</time>
        <ele>2000.0</ele>
      </trkpt>
      <trkpt lat="45.622155" lon="7.304587">
        <time>1970-01-01T00:00:00+00:00</time>
        <ele>2002.0</ele>
      </trkpt>
      <trkpt lat="45.622087" lon="7.304546">
        <time>1970-01-01T00:00:00+00:00</time>
        <ele>2004.0</ele>
      </trkpt>
      <trkpt lat="45.622163" lon="7.304476">
        <time>1970-01-01T00:00:00+00:00</time>
        <ele>2007.0</ele>
      </trkpt>
      <trkpt lat="45.622041" lon="7.304457">
        <time>1970-01-01T00:00:00+00:00</time>
        <ele>2009.0</ele>
      </trkpt>
      <trkpt lat="45.622112" lon="7.304375">
        <time>1970-01-01T00:00:00+00:00</time>
        <ele>2012.0</ele>
      </trkpt>
      <trkpt lat="45.622022" lon="7.304355">
        <time>1970-01-01T00:00:00+00:00</time>
        <ele>2014.0</ele>
      </trkpt>
      <trkpt lat="45.622052" lon="7.304298">
        <time>1970-01-01T00:00:00+00:00</time>
        <ele>2015.0</ele>
      </trkpt>
      <trkpt lat="45.621967" lon="7.304243">
        <time>1970-01-01T00:00:00+00:00</time>
        <ele>2018.0</ele>
      </trkpt>
      <trkpt lat="45.621913" lon="7.304166">
        <time>1970-01-01T00:00:00+00:00</time>
        <ele>2021.0</ele>
      </trkpt>
      <trkpt lat="45.621934" lon="7.304107">
        <time>1970-01-01T00:00:00+00:00</time>
        <ele>2024.0</ele>
      </trkpt>
      <trkpt lat="45.621581" lon="7.303873">
        <time>1970-01-01T00:00:00+00:00</time>
        <ele>2038.0</ele>
      </trkpt>
      <trkpt lat="45.621445" lon="7.303895">
        <time>1970-01-01T00:00:00+00:00</time>
        <ele>2037.0</ele>
      </trkpt>
      <trkpt lat="45.621283" lon="7.30386">
        <time>1970-01-01T00:00:00+00:00</time>
        <ele>2036.0</ele>
      </trkpt>
      <trkpt lat="45.621176" lon="7.303903">
        <time>1970-01-01T00:00:00+00:00</time>
        <ele>2034.0</ele>
      </trkpt>
      <trkpt lat="45.62102" lon="7.303738">
        <time>1970-01-01T00:00:00+00:00</time>
        <ele>2037.0</ele>
      </trkpt>
      <trkpt lat="45.620944" lon="7.303412">
        <time>1970-01-01T00:00:00+00:00</time>
        <ele>2044.0</ele>
      </trkpt>
      <trkpt lat="45.620986" lon="7.303186">
        <time>1970-01-01T00:00:00+00:00</time>
        <ele>2054.0</ele>
      </trkpt>
      <trkpt lat="45.620442" lon="7.302763">
        <time>1970-01-01T00:00:00+00:00</time>
        <ele>2075.0</ele>
      </trkpt>
      <trkpt lat="45.620264" lon="7.302784">
        <time>1970-01-01T00:00:00+00:00</time>
        <ele>2077.0</ele>
      </trkpt>
      <trkpt lat="45.62021" lon="7.302802">
        <time>1970-01-01T00:00:00+00:00</time>
        <ele>2077.0</ele>
      </trkpt>
      <trkpt lat="45.620124" lon="7.302778">
        <time>1970-01-01T00:00:00+00:00</time>
        <ele>2079.0</ele>
      </trkpt>
      <trkpt lat="45.620017" lon="7.302716">
        <time>1970-01-01T00:00:00+00:00</time>
        <ele>2082.0</ele>
      </trkpt>
      <trkpt lat="45.619974" lon="7.302656">
        <time>1970-01-01T00:00:00+00:00</time>
        <ele>2085.0</ele>
      </trkpt>
      <trkpt lat="45.619928" lon="7.302646">
        <time>1970-01-01T00:00:00+00:00</time>
        <ele>2086.0</ele>
      </trkpt>
      <trkpt lat="45.619954" lon="7.302563">
        <time>1970-01-01T00:00:00+00:00</time>
        <ele>2088.0</ele>
      </trkpt>
      <trkpt lat="45.619696" lon="7.302501">
        <time>1970-01-01T00:00:00+00:00</time>
        <ele>2091.0</ele>
      </trkpt>
      <trkpt lat="45.61964" lon="7.302444">
        <time>1970-01-01T00:00:00+00:00</time>
        <ele>2092.0</ele>
      </trkpt>
      <trkpt lat="45.619604" lon="7.302278">
        <time>1970-01-01T00:00:00+00:00</time>
        <ele>2097.0</ele>
      </trkpt>
      <trkpt lat="45.619535" lon="7.302197">
        <time>1970-01-01T00:00:00+00:00</time>
        <ele>2098.0</ele>
      </trkpt>
      <trkpt lat="45.619504" lon="7.302096">
        <time>1970-01-01T00:00:00+00:00</time>
        <ele>2101.0</ele>
      </trkpt>
      <trkpt lat="45.619547" lon="7.302013">
        <time>1970-01-01T00:00:00+00:00</time>
        <ele>2104.0</ele>
      </trkpt>
      <trkpt lat="45.619738" lon="7.301912">
        <time>1970-01-01T00:00:00+00:00</time>
        <ele>2111.0</ele>
      </trkpt>
      <trkpt lat="45.619638" lon="7.301831">
        <time>1970-01-01T00:00:00+00:00</time>
        <ele>2112.0</ele>
      </trkpt>
      <trkpt lat="45.619658" lon="7.301751">
        <time>1970-01-01T00:00:00+00:00</time>
        <ele>2114.0</ele>
      </trkpt>
      <trkpt lat="45.619549" lon="7.301676">
        <time>1970-01-01T00:00:00+00:00</time>
        <ele>2116.0</ele>
      </trkpt>
      <trkpt lat="45.619524" lon="7.301634">
        <time>1970-01-01T00:00:00+00:00</time>
        <ele>2118.0</ele>
      </trkpt>
      <trkpt lat="45.619509" lon="7.301543">
        <time>1970-01-01T00:00:00+00:00</time>
        <ele>2122.0</ele>
      </trkpt>
      <trkpt lat="45.619578" lon="7.301419">
        <time>1970-01-01T00:00:00+00:00</time>
        <ele>2128.0</ele>
      </trkpt>
      <trkpt lat="45.619642" lon="7.301344">
        <time>1970-01-01T00:00:00+00:00</time>
        <ele>2131.0</ele>
      </trkpt>
      <trkpt lat="45.619711" lon="7.301201">
        <time>1970-01-01T00:00:00+00:00</time>
        <ele>2137.0</ele>
      </trkpt>
      <trkpt lat="45.619798" lon="7.300851">
        <time>1970-01-01T00:00:00+00:00</time>
        <ele>2142.0</ele>
      </trkpt>
      <trkpt lat="45.619936" lon="7.300646">
        <time>1970-01-01T00:00:00+00:00</time>
        <ele>2145.0</ele>
      </trkpt>
      <trkpt lat="45.62003" lon="7.300462">
        <time>1970-01-01T00:00:00+00:00</time>
        <ele>2148.0</ele>
      </trkpt>
      <trkpt lat="45.620092" lon="7.300366">
        <time>1970-01-01T00:00:00+00:00</time>
        <ele>2149.0</ele>
      </trkpt>
      <trkpt lat="45.620179" lon="7.300381">
        <time>1970-01-01T00:00:00+00:00</time>
        <ele>2149.0</ele>
      </trkpt>
      <trkpt lat="45.620251" lon="7.30029">
        <time>1970-01-01T00:00:00+00:00</time>
        <ele>2151.0</ele>
      </trkpt>
      <trkpt lat="45.620343" lon="7.300301">
        <time>1970-01-01T00:00:00+00:00</time>
        <ele>2151.0</ele>
      </trkpt>
      <trkpt lat="45.620433" lon="7.300213">
        <time>1970-01-01T00:00:00+00:00</time>
        <ele>2155.0</ele>
      </trkpt>
      <trkpt lat="45.620464" lon="7.300044">
        <time>1970-01-01T00:00:00+00:00</time>
        <ele>2159.0</ele>
      </trkpt>
      <trkpt lat="45.620533" lon="7.300157">
        <time>1970-01-01T00:00:00+00:00</time>
        <ele>2158.0</ele>
      </trkpt>
      <trkpt lat="45.620754" lon="7.300425">
        <time>1970-01-01T00:00:00+00:00</time>
        <ele>2161.0</ele>
      </trkpt>
      <trkpt lat="45.620874" lon="7.300517">
        <time>1970-01-01T00:00:00+00:00</time>
        <ele>2163.0</ele>
      </trkpt>
      <trkpt lat="45.62098" lon="7.300517">
        <time>1970-01-01T00:00:00+00:00</time>
        <ele>2164.0</ele>
      </trkpt>
      <trkpt lat="45.621164" lon="7.300297">
        <time>1970-01-01T00:00:00+00:00</time>
        <ele>2166.0</ele>
      </trkpt>
      <trkpt lat="45.62115" lon="7.300168">
        <time>1970-01-01T00:00:00+00:00</time>
        <ele>2168.0</ele>
      </trkpt>
      <trkpt lat="45.621013" lon="7.300051">
        <time>1970-01-01T00:00:00+00:00</time>
        <ele>2173.0</ele>
      </trkpt>
      <trkpt lat="45.620869" lon="7.299739">
        <time>1970-01-01T00:00:00+00:00</time>
        <ele>2179.0</ele>
      </trkpt>
      <trkpt lat="45.620751" lon="7.299376">
        <time>1970-01-01T00:00:00+00:00</time>
        <ele>2186.0</ele>
      </trkpt>
      <trkpt lat="45.620774" lon="7.299211">
        <time>1970-01-01T00:00:00+00:00</time>
        <ele>2189.0</ele>
      </trkpt>
      <trkpt lat="45.620656" lon="7.298591">
        <time>1970-01-01T00:00:00+00:00</time>
        <ele>2198.0</ele>
      </trkpt>
      <trkpt lat="45.620692" lon="7.298363">
        <time>1970-01-01T00:00:00+00:00</time>
        <ele>2200.0</ele>
      </trkpt>
      <trkpt lat="45.620715" lon="7.298033">
        <time>1970-01-01T00:00:00+00:00</time>
        <ele>2202.0</ele>
      </trkpt>
      <trkpt lat="45.620713" lon="7.297758">
        <time>1970-01-01T00:00:00+00:00</time>
        <ele>2205.0</ele>
      </trkpt>
      <trkpt lat="45.620672" lon="7.297387">
        <time>1970-01-01T00:00:00+00:00</time>
        <ele>2209.0</ele>
      </trkpt>
      <trkpt lat="45.620492" lon="7.296951">
        <time>1970-01-01T00:00:00+00:00</time>
        <ele>2219.0</ele>
      </trkpt>
      <trkpt lat="45.620469" lon="7.296826">
        <time>1970-01-01T00:00:00+00:00</time>
        <ele>2222.0</ele>
      </trkpt>
      <trkpt lat="45.620587" lon="7.296455">
        <time>1970-01-01T00:00:00+00:00</time>
        <ele>2223.0</ele>
      </trkpt>
      <trkpt lat="45.620584" lon="7.296345">
        <time>1970-01-01T00:00:00+00:00</time>
        <ele>2226.0</ele>
      </trkpt>
      <trkpt lat="45.620651" lon="7.296305">
        <time>1970-01-01T00:00:00+00:00</time>
        <ele>2225.0</ele>
      </trkpt>
      <trkpt lat="45.620672" lon="7.296125">
        <time>1970-01-01T00:00:00+00:00</time>
        <ele>2231.0</ele>
      </trkpt>
      <trkpt lat="45.620774" lon="7.295982">
        <time>1970-01-01T00:00:00+00:00</time>
        <ele>2236.0</ele>
      </trkpt>
      <trkpt lat="45.620749" lon="7.295898">
        <time>1970-01-01T00:00:00+00:00</time>
        <ele>2240.0</ele>
      </trkpt>
      <trkpt lat="45.620751" lon="7.295769">
        <time>1970-01-01T00:00:00+00:00</time>
        <ele>2245.0</ele>
      </trkpt>
      <trkpt lat="45.620731" lon="7.295648">
        <time>1970-01-01T00:00:00+00:00</time>
        <ele>2248.0</ele>
      </trkpt>
      <trkpt lat="45.620654" lon="7.295439">
        <time>1970-01-01T00:00:00+00:00</time>
        <ele>2255.0</ele>
      </trkpt>
      <trkpt lat="45.62051" lon="7.294936">
        <time>1970-01-01T00:00:00+00:00</time>
        <ele>2278.0</ele>
      </trkpt>
      <trkpt lat="45.620487" lon="7.294753">
        <time>1970-01-01T00:00:00+00:00</time>
        <ele>2284.0</ele>
      </trkpt>
      <trkpt lat="45.620117" lon="7.293839">
        <time>1970-01-01T00:00:00+00:00</time>
        <ele>2314.0</ele>
      </trkpt>
      <trkpt lat="45.619905" lon="7.293489">
        <time>1970-01-01T00:00:00+00:00</time>
        <ele>2326.0</ele>
      </trkpt>
      <trkpt lat="45.619776" lon="7.293187">
        <time>1970-01-01T00:00:00+00:00</time>
        <ele>2331.0</ele>
      </trkpt>
      <trkpt lat="45.619758" lon="7.293021">
        <time>1970-01-01T00:00:00+00:00</time>
        <ele>2332.0</ele>
      </trkpt>
      <trkpt lat="45.619712" lon="7.292878">
        <time>1970-01-01T00:00:00+00:00</time>
        <ele>2334.0</ele>
      </trkpt>
      <trkpt lat="45.619384" lon="7.29235">
        <time>1970-01-01T00:00:00+00:00</time>
        <ele>2345.0</ele>
      </trkpt>
      <trkpt lat="45.619063" lon="7.291744">
        <time>1970-01-01T00:00:00+00:00</time>
        <ele>2360.0</ele>
      </trkpt>
      <trkpt lat="45.618963" lon="7.291689">
        <time>1970-01-01T00:00:00+00:00</time>
        <ele>2366.0</ele>
      </trkpt>
      <trkpt lat="45.618804" lon="7.291308">
        <time>1970-01-01T00:00:00+00:00</time>
        <ele>2373.0</ele>
      </trkpt>
      <trkpt lat="45.61897" lon="7.290923">
        <time>1970-01-01T00:00:00+00:00</time>
        <ele>2372.0</ele>
      </trkpt>
      <trkpt lat="45.619109" lon="7.290794">
        <time>1970-01-01T00:00:00+00:00</time>
        <ele>2374.0</ele>
      </trkpt>
      <trkpt lat="45.619273" lon="7.290684">
        <time>1970-01-01T00:00:00+00:00</time>
        <ele>2378.0</ele>
      </trkpt>
      <trkpt lat="45.619373" lon="7.290497">
        <time>1970-01-01T00:00:00+00:00</time>
        <ele>2385.0</ele>
      </trkpt>
      <trkpt lat="45.619407" lon="7.290211">
        <time>1970-01-01T00:00:00+00:00</time>
        <ele>2392.0</ele>
      </trkpt>
      <trkpt lat="45.619327" lon="7.289393">
        <time>1970-01-01T00:00:00+00:00</time>
        <ele>2409.0</ele>
      </trkpt>
      <trkpt lat="45.619439" lon="7.28897">
        <time>1970-01-01T00:00:00+00:00</time>
        <ele>2426.0</ele>
      </trkpt>
      <trkpt lat="45.619358" lon="7.288695">
        <time>1970-01-01T00:00:00+00:00</time>
        <ele>2435.0</ele>
      </trkpt>
      <trkpt lat="45.619222" lon="7.287995">
        <time>1970-01-01T00:00:00+00:00</time>
        <ele>2449.0</ele>
      </trkpt>
      <trkpt lat="45.61925" lon="7.287672">
        <time>1970-01-01T00:00:00+00:00</time>
        <ele>2453.0</ele>
      </trkpt>
      <trkpt lat="45.61923" lon="7.287485">
        <time>1970-01-01T00:00:00+00:00</time>
        <ele>2456.0</ele>
      </trkpt>
      <trkpt lat="45.619178" lon="7.287323">
        <time>1970-01-01T00:00:00+00:00</time>
        <ele>2459.0</ele>
      </trkpt>
      <trkpt lat="45.61905" lon="7.287202">
        <time>1970-01-01T00:00:00+00:00</time>
        <ele>2462.0</ele>
      </trkpt>
      <trkpt lat="45.618922" lon="7.28714">
        <time>1970-01-01T00:00:00+00:00</time>
        <ele>2466.0</ele>
      </trkpt>
      <trkpt lat="45.618814" lon="7.286953">
        <time>1970-01-01T00:00:00+00:00</time>
        <ele>2471.0</ele>
      </trkpt>
      <trkpt lat="45.61876" lon="7.286755">
        <time>1970-01-01T00:00:00+00:00</time>
        <ele>2474.0</ele>
      </trkpt>
      <trkpt lat="45.618693" lon="7.286718">
        <time>1970-01-01T00:00:00+00:00</time>
        <ele>2474.0</ele>
      </trkpt>
      <trkpt lat="45.618372" lon="7.286366">
        <time>1970-01-01T00:00:00+00:00</time>
        <ele>2476.0</ele>
      </trkpt>
      <trkpt lat="45.618229" lon="7.286105">
        <time>1970-01-01T00:00:00+00:00</time>
        <ele>2479.0</ele>
      </trkpt>
      <trkpt lat="45.618226" lon="7.285845">
        <time>1970-01-01T00:00:00+00:00</time>
        <ele>2482.0</ele>
      </trkpt>
      <trkpt lat="45.618175" lon="7.285679">
        <time>1970-01-01T00:00:00+00:00</time>
        <ele>2484.0</ele>
      </trkpt>
      <trkpt lat="45.618208" lon="7.285305">
        <time>1970-01-01T00:00:00+00:00</time>
        <ele>2489.0</ele>
      </trkpt>
      <trkpt lat="45.618183" lon="7.285063">
        <time>1970-01-01T00:00:00+00:00</time>
        <ele>2493.0</ele>
      </trkpt>
      <trkpt lat="45.618118" lon="7.284832">
        <time>1970-01-01T00:00:00+00:00</time>
        <ele>2495.0</ele>
      </trkpt>
      <trkpt lat="45.618057" lon="7.284527">
        <time>1970-01-01T00:00:00+00:00</time>
        <ele>2499.0</ele>
      </trkpt>
      <trkpt lat="45.618029" lon="7.284293">
        <time>1970-01-01T00:00:00+00:00</time>
        <ele>2501.0</ele>
      </trkpt>
      <trkpt lat="45.618026" lon="7.283966">
        <time>1970-01-01T00:00:00+00:00</time>
        <ele>2504.0</ele>
      </trkpt>
      <trkpt lat="45.618041" lon="7.283823">
        <time>1970-01-01T00:00:00+00:00</time>
        <ele>2505.0</ele>
      </trkpt>
      <trkpt lat="45.61797" lon="7.283518">
        <time>1970-01-01T00:00:00+00:00</time>
        <ele>2510.0</ele>
      </trkpt>
      <trkpt lat="45.617916" lon="7.283416">
        <time>1970-01-01T00:00:00+00:00</time>
        <ele>2512.0</ele>
      </trkpt>
      <trkpt lat="45.617854" lon="7.283159">
        <time>1970-01-01T00:00:00+00:00</time>
        <ele>2515.0</ele>
      </trkpt>
      <trkpt lat="45.617803" lon="7.283016">
        <time>1970-01-01T00:00:00+00:00</time>
        <ele>2519.0</ele>
      </trkpt>
      <trkpt lat="45.617759" lon="7.28262">
        <time>1970-01-01T00:00:00+00:00</time>
        <ele>2529.0</ele>
      </trkpt>
      <trkpt lat="45.617672" lon="7.282528">
        <time>1970-01-01T00:00:00+00:00</time>
        <ele>2532.0</ele>
      </trkpt>
      <trkpt lat="45.617523" lon="7.282421">
        <time>1970-01-01T00:00:00+00:00</time>
        <ele>2537.0</ele>
      </trkpt>
      <trkpt lat="45.617392" lon="7.282267">
        <time>1970-01-01T00:00:00+00:00</time>
        <ele>2545.0</ele>
      </trkpt>
      <trkpt lat="45.617272" lon="7.282192">
        <time>1970-01-01T00:00:00+00:00</time>
        <ele>2553.0</ele>
      </trkpt>
      <trkpt lat="45.617151" lon="7.282198">
        <time>1970-01-01T00:00:00+00:00</time>
        <ele>2559.0</ele>
      </trkpt>
      <trkpt lat="45.617052" lon="7.28233">
        <time>1970-01-01T00:00:00+00:00</time>
        <ele>2559.0</ele>
      </trkpt>
      <trkpt lat="45.61689" lon="7.282392">
        <time>1970-01-01T00:00:00+00:00</time>
        <ele>2565.0</ele>
      </trkpt>
      <trkpt lat="45.616604" lon="7.282447">
        <time>1970-01-01T00:00:00+00:00</time>
        <ele>2578.0</ele>
      </trkpt>
      <trkpt lat="45.616402" lon="7.282528">
        <time>1970-01-01T00:00:00+00:00</time>
        <ele>2583.0</ele>
      </trkpt>
      <trkpt lat="45.616324" lon="7.282654">
        <time>1970-01-01T00:00:00+00:00</time>
        <ele>2585.0</ele>
      </trkpt>
      <trkpt lat="45.616224" lon="7.282322">
        <time>1970-01-01T00:00:00+00:00</time>
        <ele>2590.0</ele>
      </trkpt>
      <trkpt lat="45.616057" lon="7.282083">
        <time>1970-01-01T00:00:00+00:00</time>
        <ele>2601.0</ele>
      </trkpt>
      <trkpt lat="45.615888" lon="7.28194">
        <time>1970-01-01T00:00:00+00:00</time>
        <ele>2609.0</ele>
      </trkpt>
      <trkpt lat="45.615793" lon="7.28183">
        <time>1970-01-01T00:00:00+00:00</time>
        <ele>2613.0</ele>
      </trkpt>
      <trkpt lat="45.615703" lon="7.281661">
        <time>1970-01-01T00:00:00+00:00</time>
        <ele>2618.0</ele>
      </trkpt>
      <trkpt lat="45.615631" lon="7.281192">
        <time>1970-01-01T00:00:00+00:00</time>
        <ele>2631.0</ele>
      </trkpt>
      <trkpt lat="45.615554" lon="7.281089">
        <time>1970-01-01T00:00:00+00:00</time>
        <ele>2637.0</ele>
      </trkpt>
      <trkpt lat="45.615534" lon="7.280957">
        <time>1970-01-01T00:00:00+00:00</time>
        <ele>2642.0</ele>
      </trkpt>
      <trkpt lat="45.615554" lon="7.280843">
        <time>1970-01-01T00:00:00+00:00</time>
        <ele>2649.0</ele>
      </trkpt>
      <trkpt lat="45.615662" lon="7.280696">
        <time>1970-01-01T00:00:00+00:00</time>
        <ele>2655.0</ele>
      </trkpt>
      <trkpt lat="45.615788" lon="7.280627">
        <time>1970-01-01T00:00:00+00:00</time>
        <ele>2656.0</ele>
      </trkpt>
      <trkpt lat="45.615909" lon="7.280315">
        <time>1970-01-01T00:00:00+00:00</time>
        <ele>2667.0</ele>
      </trkpt>
      <trkpt lat="45.615996" lon="7.280161">
        <time>1970-01-01T00:00:00+00:00</time>
        <ele>2669.0</ele>
      </trkpt>
      <trkpt lat="45.616042" lon="7.280043">
        <time>1970-01-01T00:00:00+00:00</time>
        <ele>2672.0</ele>
      </trkpt>
      <trkpt lat="45.616147" lon="7.280025">
        <time>1970-01-01T00:00:00+00:00</time>
        <ele>2670.0</ele>
      </trkpt>
      <trkpt lat="45.616224" lon="7.279985">
        <time>1970-01-01T00:00:00+00:00</time>
        <ele>2669.0</ele>
      </trkpt>
      <trkpt lat="45.616363" lon="7.279658">
        <time>1970-01-01T00:00:00+00:00</time>
        <ele>2675.0</ele>
      </trkpt>
      <trkpt lat="45.616445" lon="7.279533">
        <time>1970-01-01T00:00:00+00:00</time>
        <ele>2676.0</ele>
      </trkpt>
      <trkpt lat="45.616496" lon="7.279185">
        <time>1970-01-01T00:00:00+00:00</time>
        <ele>2686.0</ele>
      </trkpt>
      <trkpt lat="45.616545" lon="7.278976">
        <time>1970-01-01T00:00:00+00:00</time>
        <ele>2696.0</ele>
      </trkpt>
      <trkpt lat="45.616676" lon="7.278857">
        <time>1970-01-01T00:00:00+00:00</time>
        <ele>2699.0</ele>
      </trkpt>
      <trkpt lat="45.616777" lon="7.278719">
        <time>1970-01-01T00:00:00+00:00</time>
        <ele>2703.0</ele>
      </trkpt>
      <trkpt lat="45.616848" lon="7.278473">
        <time>1970-01-01T00:00:00+00:00</time>
        <ele>2714.0</ele>
      </trkpt>
      <trkpt lat="45.616992" lon="7.278334">
        <time>1970-01-01T00:00:00+00:00</time>
        <ele>2720.0</ele>
      </trkpt>
      <trkpt lat="45.617079" lon="7.278209">
        <time>1970-01-01T00:00:00+00:00</time>
        <ele>2728.0</ele>
      </trkpt>
      <trkpt lat="45.617256" lon="7.278018">
        <time>1970-01-01T00:00:00+00:00</time>
        <ele>2739.0</ele>
      </trkpt>
      <trkpt lat="45.617213" lon="7.277857">
        <time>1970-01-01T00:00:00+00:00</time>
        <ele>2748.0</ele>
      </trkpt>
      <trkpt lat="45.617442" lon="7.27756">
        <time>1970-01-01T00:00:00+00:00</time>
        <ele>2768.0</ele>
      </trkpt>
      <trkpt lat="45.617341" lon="7.277453">
        <time>1970-01-01T00:00:00+00:00</time>
        <ele>2778.0</ele>
      </trkpt>
      <trkpt lat="45.61733" lon="7.277163">
        <time>1970-01-01T00:00:00+00:00</time>
        <ele>2801.0</ele>
      </trkpt>
      <trkpt lat="45.617271" lon="7.276994">
        <time>1970-01-01T00:00:00+00:00</time>
        <ele>2809.0</ele>
      </trkpt>
      <trkpt lat="45.617222" lon="7.276789">
        <time>1970-01-01T00:00:00+00:00</time>
        <ele>2817.0</ele>
      </trkpt>
      <trkpt lat="45.617281" lon="7.276625">
        <time>1970-01-01T00:00:00+00:00</time>
        <ele>2821.0</ele>
      </trkpt>
      <trkpt lat="45.617459" lon="7.2766">
        <time>1970-01-01T00:00:00+00:00</time>
        <ele>2818.0</ele>
      </trkpt>
      <trkpt lat="45.617433" lon="7.276373">
        <time>1970-01-01T00:00:00+00:00</time>
        <ele>2824.0</ele>
      </trkpt>
      <trkpt lat="45.616999" lon="7.275927">
        <time>1970-01-01T00:00:00+00:00</time>
        <ele>2833.0</ele>
      </trkpt>
      <trkpt lat="45.616799" lon="7.275787">
        <time>1970-01-01T00:00:00+00:00</time>
        <ele>2839.0</ele>
      </trkpt>
      <trkpt lat="45.61664" lon="7.275582">
        <time>1970-01-01T00:00:00+00:00</time>
        <ele>2847.0</ele>
      </trkpt>
      <trkpt lat="45.616537" lon="7.275365">
        <time>1970-01-01T00:00:00+00:00</time>
        <ele>2848.0</ele>
      </trkpt>
      <trkpt lat="45.616453" lon="7.275252">
        <time>1970-01-01T00:00:00+00:00</time>
        <ele>2849.0</ele>
      </trkpt>
      <trkpt lat="45.61637" lon="7.275101">
        <time>1970-01-01T00:00:00+00:00</time>
        <ele>2847.0</ele>
      </trkpt>
      <trkpt lat="45.616319" lon="7.274976">
        <time>1970-01-01T00:00:00+00:00</time>
        <ele>2847.0</ele>
      </trkpt>
      <trkpt lat="45.616219" lon="7.274918">
        <time>1970-01-01T00:00:00+00:00</time>
        <ele>2852.0</ele>
      </trkpt>
      <trkpt lat="45.616178" lon="7.274716">
        <time>1970-01-01T00:00:00+00:00</time>
        <ele>2852.0</ele>
      </trkpt>
      <trkpt lat="45.616206" lon="7.274639">
        <time>1970-01-01T00:00:00+00:00</time>
        <ele>2850.0</ele>
      </trkpt>
      <trkpt lat="45.616209" lon="7.274488">
        <time>1970-01-01T00:00:00+00:00</time>
        <ele>2849.0</ele>
      </trkpt>
      <trkpt lat="45.616122" lon="7.274312">
        <time>1970-01-01T00:00:00+00:00</time>
        <ele>2852.0</ele>
      </trkpt>
      <trkpt lat="45.616039" lon="7.274019">
        <time>1970-01-01T00:00:00+00:00</time>
        <ele>2856.0</ele>
      </trkpt>
      <trkpt lat="45.61597" lon="7.273832">
        <time>1970-01-01T00:00:00+00:00</time>
        <ele>2858.0</ele>
      </trkpt>
      <trkpt lat="45.615735" lon="7.273334">
        <time>1970-01-01T00:00:00+00:00</time>
        <ele>2867.0</ele>
      </trkpt>
      <trkpt lat="45.615784" lon="7.273099">
        <time>1970-01-01T00:00:00+00:00</time>
        <ele>2865.0</ele>
      </trkpt>
      <trkpt lat="45.615735" lon="7.272838">
        <time>1970-01-01T00:00:00+00:00</time>
        <ele>2868.0</ele>
      </trkpt>
      <trkpt lat="45.615625" lon="7.272611">
        <time>1970-01-01T00:00:00+00:00</time>
        <ele>2868.0</ele>
      </trkpt>
      <trkpt lat="45.615875" lon="7.272331">
        <time>1970-01-01T00:00:00+00:00</time>
        <ele>2872.0</ele>
      </trkpt>
      <trkpt lat="45.615959" lon="7.272294">
        <time>1970-01-01T00:00:00+00:00</time>
        <ele>2874.0</ele>
      </trkpt>
      <trkpt lat="45.616376" lon="7.272262">
        <time>1970-01-01T00:00:00+00:00</time>
        <ele>2895.0</ele>
      </trkpt>
      <trkpt lat="45.616414" lon="7.272239">
        <time>1970-01-01T00:00:00+00:00</time>
        <ele>2897.0</ele>
      </trkpt>
      <trkpt lat="45.616472" lon="7.272162">
        <time>1970-01-01T00:00:00+00:00</time>
        <ele>2899.0</ele>
      </trkpt>
      <trkpt lat="45.616617" lon="7.272093">
        <time>1970-01-01T00:00:00+00:00</time>
        <ele>2909.0</ele>
      </trkpt>
      <trkpt lat="45.616645" lon="7.272041">
        <time>1970-01-01T00:00:00+00:00</time>
        <ele>2911.0</ele>
      </trkpt>
      <trkpt lat="45.616732" lon="7.271972">
        <time>1970-01-01T00:00:00+00:00</time>
        <ele>2918.0</ele>
      </trkpt>
      <trkpt lat="45.616933" lon="7.271894">
        <time>1970-01-01T00:00:00+00:00</time>
        <ele>2934.0</ele>
      </trkpt>
      <trkpt lat="45.617338" lon="7.271883">
        <time>1970-01-01T00:00:00+00:00</time>
        <ele>2959.0</ele>
      </trkpt>
      <trkpt lat="45.617388" lon="7.271842">
        <time>1970-01-01T00:00:00+00:00</time>
        <ele>2963.0</ele>
      </trkpt>
      <trkpt lat="45.61743" lon="7.271592">
        <time>1970-01-01T00:00:00+00:00</time>
        <ele>2967.0</ele>
      </trkpt>
      <trkpt lat="45.617458" lon="7.271549">
        <time>1970-01-01T00:00:00+00:00</time>
        <ele>2969.0</ele>
      </trkpt>
      <trkpt lat="45.617631" lon="7.271517">
        <time>1970-01-01T00:00:00+00:00</time>
        <ele>2980.0</ele>
      </trkpt>
      <trkpt lat="45.61778" lon="7.27131">
        <time>1970-01-01T00:00:00+00:00</time>
        <ele>2989.0</ele>
      </trkpt>
      <trkpt lat="45.617883" lon="7.271224">
        <time>1970-01-01T00:00:00+00:00</time>
        <ele>2997.0</ele>
      </trkpt>
      <trkpt lat="45.618042" lon="7.271276">
        <time>1970-01-01T00:00:00+00:00</time>
        <ele>3012.0</ele>
      </trkpt>
      <trkpt lat="45.618116" lon="7.27133">
        <time>1970-01-01T00:00:00+00:00</time>
        <ele>3016.0</ele>
      </trkpt>
      <trkpt lat="45.618241" lon="7.271319">
        <time>1970-01-01T00:00:00+00:00</time>
        <ele>3023.0</ele>
      </trkpt>
      <trkpt lat="45.618346" lon="7.271138">
        <time>1970-01-01T00:00:00+00:00</time>
        <ele>3032.0</ele>
      </trkpt>
      <trkpt lat="45.618446" lon="7.270767">
        <time>1970-01-01T00:00:00+00:00</time>
        <ele>3048.0</ele>
      </trkpt>
      <trkpt lat="45.61845" lon="7.270698">
        <time>1970-01-01T00:00:00+00:00</time>
        <ele>3049.0</ele>
      </trkpt>
      <trkpt lat="45.618416" lon="7.270522">
        <time>1970-01-01T00:00:00+00:00</time>
        <ele>3046.0</ele>
      </trkpt>
      <trkpt lat="45.61843" lon="7.270418">
        <time>1970-01-01T00:00:00+00:00</time>
        <ele>3048.0</ele>
      </trkpt>
      <trkpt lat="45.618511" lon="7.270355">
        <time>1970-01-01T00:00:00+00:00</time>
        <ele>3058.0</ele>
      </trkpt>
      <trkpt lat="45.618666" lon="7.270344">
        <time>1970-01-01T00:00:00+00:00</time>
        <ele>3077.0</ele>
      </trkpt>
      <trkpt lat="45.618778" lon="7.270401">
        <time>1970-01-01T00:00:00+00:00</time>
        <ele>3084.0</ele>
      </trkpt>
      <trkpt lat="45.618841" lon="7.270456">
        <time>1970-01-01T00:00:00+00:00</time>
        <ele>3088.0</ele>
      </trkpt>
      <trkpt lat="45.618863" lon="7.270522">
        <time>1970-01-01T00:00:00+00:00</time>
        <ele>3087.0</ele>
      </trkpt>
      <trkpt lat="45.618909" lon="7.270585">
        <time>1970-01-01T00:00:00+00:00</time>
        <ele>3087.0</ele>
      </trkpt>
      <trkpt lat="45.6191" lon="7.270767">
        <time>1970-01-01T00:00:00+00:00</time>
        <ele>3089.0</ele>
      </trkpt>
      <trkpt lat="45.619257" lon="7.270991">
        <time>1970-01-01T00:00:00+00:00</time>
        <ele>3093.0</ele>
      </trkpt>
      <trkpt lat="45.619285" lon="7.271074">
        <time>1970-01-01T00:00:00+00:00</time>
        <ele>3092.0</ele>
      </trkpt>
      <trkpt lat="45.619398" lon="7.271115">
        <time>1970-01-01T00:00:00+00:00</time>
        <ele>3094.0</ele>
      </trkpt>
      <trkpt lat="45.619398" lon="7.271115">
        <time>1970-01-01T00:00:00+00:00</time>
        <ele>3094.0</ele>
      </trkpt>
      <trkpt lat="45.619285" lon="7.271074">
        <time>1970-01-01T00:00:00+00:00</time>
        <ele>3092.0</ele>
      </trkpt>
      <trkpt lat="45.619257" lon="7.270991">
        <time>1970-01-01T00:00:00+00:00</time>
        <ele>3093.0</ele>
      </trkpt>
      <trkpt lat="45.6191" lon="7.270767">
        <time>1970-01-01T00:00:00+00:00</time>
        <ele>3089.0</ele>
      </trkpt>
      <trkpt lat="45.618909" lon="7.270585">
        <time>1970-01-01T00:00:00+00:00</time>
        <ele>3087.0</ele>
      </trkpt>
      <trkpt lat="45.618863" lon="7.270522">
        <time>1970-01-01T00:00:00+00:00</time>
        <ele>3087.0</ele>
      </trkpt>
      <trkpt lat="45.618841" lon="7.270456">
        <time>1970-01-01T00:00:00+00:00</time>
        <ele>3088.0</ele>
      </trkpt>
      <trkpt lat="45.618778" lon="7.270401">
        <time>1970-01-01T00:00:00+00:00</time>
        <ele>3084.0</ele>
      </trkpt>
      <trkpt lat="45.618666" lon="7.270344">
        <time>1970-01-01T00:00:00+00:00</time>
        <ele>3077.0</ele>
      </trkpt>
      <trkpt lat="45.618511" lon="7.270355">
        <time>1970-01-01T00:00:00+00:00</time>
        <ele>3058.0</ele>
      </trkpt>
      <trkpt lat="45.61843" lon="7.270418">
        <time>1970-01-01T00:00:00+00:00</time>
        <ele>3048.0</ele>
      </trkpt>
      <trkpt lat="45.618416" lon="7.270522">
        <time>1970-01-01T00:00:00+00:00</time>
        <ele>3046.0</ele>
      </trkpt>
      <trkpt lat="45.61845" lon="7.270698">
        <time>1970-01-01T00:00:00+00:00</time>
        <ele>3049.0</ele>
      </trkpt>
      <trkpt lat="45.618446" lon="7.270767">
        <time>1970-01-01T00:00:00+00:00</time>
        <ele>3048.0</ele>
      </trkpt>
      <trkpt lat="45.618346" lon="7.271138">
        <time>1970-01-01T00:00:00+00:00</time>
        <ele>3032.0</ele>
      </trkpt>
      <trkpt lat="45.618241" lon="7.271319">
        <time>1970-01-01T00:00:00+00:00</time>
        <ele>3023.0</ele>
      </trkpt>
      <trkpt lat="45.618116" lon="7.27133">
        <time>1970-01-01T00:00:00+00:00</time>
        <ele>3016.0</ele>
      </trkpt>
      <trkpt lat="45.618042" lon="7.271276">
        <time>1970-01-01T00:00:00+00:00</time>
        <ele>3012.0</ele>
      </trkpt>
      <trkpt lat="45.617883" lon="7.271224">
        <time>1970-01-01T00:00:00+00:00</time>
        <ele>2997.0</ele>
      </trkpt>
      <trkpt lat="45.61778" lon="7.27131">
        <time>1970-01-01T00:00:00+00:00</time>
        <ele>2989.0</ele>
      </trkpt>
      <trkpt lat="45.617631" lon="7.271517">
        <time>1970-01-01T00:00:00+00:00</time>
        <ele>2980.0</ele>
      </trkpt>
      <trkpt lat="45.617458" lon="7.271549">
        <time>1970-01-01T00:00:00+00:00</time>
        <ele>2969.0</ele>
      </trkpt>
      <trkpt lat="45.61743" lon="7.271592">
        <time>1970-01-01T00:00:00+00:00</time>
        <ele>2967.0</ele>
      </trkpt>
      <trkpt lat="45.617388" lon="7.271842">
        <time>1970-01-01T00:00:00+00:00</time>
        <ele>2963.0</ele>
      </trkpt>
      <trkpt lat="45.617338" lon="7.271883">
        <time>1970-01-01T00:00:00+00:00</time>
        <ele>2959.0</ele>
      </trkpt>
      <trkpt lat="45.616933" lon="7.271894">
        <time>1970-01-01T00:00:00+00:00</time>
        <ele>2934.0</ele>
      </trkpt>
      <trkpt lat="45.616732" lon="7.271972">
        <time>1970-01-01T00:00:00+00:00</time>
        <ele>2918.0</ele>
      </trkpt>
      <trkpt lat="45.616645" lon="7.272041">
        <time>1970-01-01T00:00:00+00:00</time>
        <ele>2911.0</ele>
      </trkpt>
      <trkpt lat="45.616617" lon="7.272093">
        <time>1970-01-01T00:00:00+00:00</time>
        <ele>2909.0</ele>
      </trkpt>
      <trkpt lat="45.616472" lon="7.272162">
        <time>1970-01-01T00:00:00+00:00</time>
        <ele>2899.0</ele>
      </trkpt>
      <trkpt lat="45.616414" lon="7.272239">
        <time>1970-01-01T00:00:00+00:00</time>
        <ele>2897.0</ele>
      </trkpt>
      <trkpt lat="45.616376" lon="7.272262">
        <time>1970-01-01T00:00:00+00:00</time>
        <ele>2895.0</ele>
      </trkpt>
      <trkpt lat="45.615959" lon="7.272294">
        <time>1970-01-01T00:00:00+00:00</time>
        <ele>2874.0</ele>
      </trkpt>
      <trkpt lat="45.615875" lon="7.272331">
        <time>1970-01-01T00:00:00+00:00</time>
        <ele>2872.0</ele>
      </trkpt>
      <trkpt lat="45.615625" lon="7.272611">
        <time>1970-01-01T00:00:00+00:00</time>
        <ele>2868.0</ele>
      </trkpt>
      <trkpt lat="45.615735" lon="7.272838">
        <time>1970-01-01T00:00:00+00:00</time>
        <ele>2868.0</ele>
      </trkpt>
      <trkpt lat="45.615784" lon="7.273099">
        <time>1970-01-01T00:00:00+00:00</time>
        <ele>2865.0</ele>
      </trkpt>
      <trkpt lat="45.615735" lon="7.273334">
        <time>1970-01-01T00:00:00+00:00</time>
        <ele>2867.0</ele>
      </trkpt>
      <trkpt lat="45.61597" lon="7.273832">
        <time>1970-01-01T00:00:00+00:00</time>
        <ele>2858.0</ele>
      </trkpt>
      <trkpt lat="45.616039" lon="7.274019">
        <time>1970-01-01T00:00:00+00:00</time>
        <ele>2856.0</ele>
      </trkpt>
      <trkpt lat="45.616122" lon="7.274312">
        <time>1970-01-01T00:00:00+00:00</time>
        <ele>2852.0</ele>
      </trkpt>
      <trkpt lat="45.616209" lon="7.274488">
        <time>1970-01-01T00:00:00+00:00</time>
        <ele>2849.0</ele>
      </trkpt>
      <trkpt lat="45.616206" lon="7.274639">
        <time>1970-01-01T00:00:00+00:00</time>
        <ele>2850.0</ele>
      </trkpt>
      <trkpt lat="45.616178" lon="7.274716">
        <time>1970-01-01T00:00:00+00:00</time>
        <ele>2852.0</ele>
      </trkpt>
      <trkpt lat="45.616219" lon="7.274918">
        <time>1970-01-01T00:00:00+00:00</time>
        <ele>2852.0</ele>
      </trkpt>
      <trkpt lat="45.616319" lon="7.274976">
        <time>1970-01-01T00:00:00+00:00</time>
        <ele>2847.0</ele>
      </trkpt>
      <trkpt lat="45.61637" lon="7.275101">
        <time>1970-01-01T00:00:00+00:00</time>
        <ele>2847.0</ele>
      </trkpt>
      <trkpt lat="45.616453" lon="7.275252">
        <time>1970-01-01T00:00:00+00:00</time>
        <ele>2849.0</ele>
      </trkpt>
      <trkpt lat="45.616537" lon="7.275365">
        <time>1970-01-01T00:00:00+00:00</time>
        <ele>2848.0</ele>
      </trkpt>
      <trkpt lat="45.61664" lon="7.275582">
        <time>1970-01-01T00:00:00+00:00</time>
        <ele>2847.0</ele>
      </trkpt>
      <trkpt lat="45.616799" lon="7.275787">
        <time>1970-01-01T00:00:00+00:00</time>
        <ele>2839.0</ele>
      </trkpt>
      <trkpt lat="45.616999" lon="7.275927">
        <time>1970-01-01T00:00:00+00:00</time>
        <ele>2833.0</ele>
      </trkpt>
      <trkpt lat="45.617433" lon="7.276373">
        <time>1970-01-01T00:00:00+00:00</time>
        <ele>2824.0</ele>
      </trkpt>
      <trkpt lat="45.617459" lon="7.2766">
        <time>1970-01-01T00:00:00+00:00</time>
        <ele>2818.0</ele>
      </trkpt>
      <trkpt lat="45.617281" lon="7.276625">
        <time>1970-01-01T00:00:00+00:00</time>
        <ele>2821.0</ele>
      </trkpt>
      <trkpt lat="45.617222" lon="7.276789">
        <time>1970-01-01T00:00:00+00:00</time>
        <ele>2817.0</ele>
      </trkpt>
      <trkpt lat="45.617271" lon="7.276994">
        <time>1970-01-01T00:00:00+00:00</time>
        <ele>2809.0</ele>
      </trkpt>
      <trkpt lat="45.61733" lon="7.277163">
        <time>1970-01-01T00:00:00+00:00</time>
        <ele>2801.0</ele>
      </trkpt>
      <trkpt lat="45.617341" lon="7.277453">
        <time>1970-01-01T00:00:00+00:00</time>
        <ele>2778.0</ele>
      </trkpt>
      <trkpt lat="45.617442" lon="7.27756">
        <time>1970-01-01T00:00:00+00:00</time>
        <ele>2768.0</ele>
      </trkpt>
      <trkpt lat="45.617213" lon="7.277857">
        <time>1970-01-01T00:00:00+00:00</time>
        <ele>2748.0</ele>
      </trkpt>
      <trkpt lat="45.617256" lon="7.278018">
        <time>1970-01-01T00:00:00+00:00</time>
        <ele>2739.0</ele>
      </trkpt>
      <trkpt lat="45.617079" lon="7.278209">
        <time>1970-01-01T00:00:00+00:00</time>
        <ele>2728.0</ele>
      </trkpt>
      <trkpt lat="45.616992" lon="7.278334">
        <time>1970-01-01T00:00:00+00:00</time>
        <ele>2720.0</ele>
      </trkpt>
      <trkpt lat="45.616848" lon="7.278473">
        <time>1970-01-01T00:00:00+00:00</time>
        <ele>2714.0</ele>
      </trkpt>
      <trkpt lat="45.616777" lon="7.278719">
        <time>1970-01-01T00:00:00+00:00</time>
        <ele>2703.0</ele>
      </trkpt>
      <trkpt lat="45.616676" lon="7.278857">
        <time>1970-01-01T00:00:00+00:00</time>
        <ele>2699.0</ele>
      </trkpt>
      <trkpt lat="45.616545" lon="7.278976">
        <time>1970-01-01T00:00:00+00:00</time>
        <ele>2696.0</ele>
      </trkpt>
      <trkpt lat="45.616496" lon="7.279185">
        <time>1970-01-01T00:00:00+00:00</time>
        <ele>2686.0</ele>
      </trkpt>
      <trkpt lat="45.616445" lon="7.279533">
        <time>1970-01-01T00:00:00+00:00</time>
        <ele>2676.0</ele>
      </trkpt>
      <trkpt lat="45.616363" lon="7.279658">
        <time>1970-01-01T00:00:00+00:00</time>
        <ele>2675.0</ele>
      </trkpt>
      <trkpt lat="45.616224" lon="7.279985">
        <time>1970-01-01T00:00:00+00:00</time>
        <ele>2669.0</ele>
      </trkpt>
      <trkpt lat="45.616147" lon="7.280025">
        <time>1970-01-01T00:00:00+00:00</time>
        <ele>2670.0</ele>
      </trkpt>
      <trkpt lat="45.616042" lon="7.280043">
        <time>1970-01-01T00:00:00+00:00</time>
        <ele>2672.0</ele>
      </trkpt>
      <trkpt lat="45.615996" lon="7.280161">
        <time>1970-01-01T00:00:00+00:00</time>
        <ele>2669.0</ele>
      </trkpt>
      <trkpt lat="45.615909" lon="7.280315">
        <time>1970-01-01T00:00:00+00:00</time>
        <ele>2667.0</ele>
      </trkpt>
      <trkpt lat="45.615788" lon="7.280627">
        <time>1970-01-01T00:00:00+00:00</time>
        <ele>2656.0</ele>
      </trkpt>
      <trkpt lat="45.615662" lon="7.280696">
        <time>1970-01-01T00:00:00+00:00</time>
        <ele>2655.0</ele>
      </trkpt>
      <trkpt lat="45.615554" lon="7.280843">
        <time>1970-01-01T00:00:00+00:00</time>
        <ele>2649.0</ele>
      </trkpt>
      <trkpt lat="45.615534" lon="7.280957">
        <time>1970-01-01T00:00:00+00:00</time>
        <ele>2642.0</ele>
      </trkpt>
      <trkpt lat="45.615554" lon="7.281089">
        <time>1970-01-01T00:00:00+00:00</time>
        <ele>2637.0</ele>
      </trkpt>
      <trkpt lat="45.615631" lon="7.281192">
        <time>1970-01-01T00:00:00+00:00</time>
        <ele>2631.0</ele>
      </trkpt>
      <trkpt lat="45.615703" lon="7.281661">
        <time>1970-01-01T00:00:00+00:00</time>
        <ele>2618.0</ele>
      </trkpt>
      <trkpt lat="45.615793" lon="7.28183">
        <time>1970-01-01T00:00:00+00:00</time>
        <ele>2613.0</ele>
      </trkpt>
      <trkpt lat="45.615888" lon="7.28194">
        <time>1970-01-01T00:00:00+00:00</time>
        <ele>2609.0</ele>
      </trkpt>
      <trkpt lat="45.616057" lon="7.282083">
        <time>1970-01-01T00:00:00+00:00</time>
        <ele>2601.0</ele>
      </trkpt>
      <trkpt lat="45.616224" lon="7.282322">
        <time>1970-01-01T00:00:00+00:00</time>
        <ele>2590.0</ele>
      </trkpt>
      <trkpt lat="45.616324" lon="7.282654">
        <time>1970-01-01T00:00:00+00:00</time>
        <ele>2585.0</ele>
      </trkpt>
      <trkpt lat="45.616402" lon="7.282528">
        <time>1970-01-01T00:00:00+00:00</time>
        <ele>2583.0</ele>
      </trkpt>
      <trkpt lat="45.616604" lon="7.282447">
        <time>1970-01-01T00:00:00+00:00</time>
        <ele>2578.0</ele>
      </trkpt>
      <trkpt lat="45.61689" lon="7.282392">
        <time>1970-01-01T00:00:00+00:00</time>
        <ele>2565.0</ele>
      </trkpt>
      <trkpt lat="45.617052" lon="7.28233">
        <time>1970-01-01T00:00:00+00:00</time>
        <ele>2559.0</ele>
      </trkpt>
      <trkpt lat="45.617151" lon="7.282198">
        <time>1970-01-01T00:00:00+00:00</time>
        <ele>2559.0</ele>
      </trkpt>
      <trkpt lat="45.617272" lon="7.282192">
        <time>1970-01-01T00:00:00+00:00</time>
        <ele>2553.0</ele>
      </trkpt>
      <trkpt lat="45.617392" lon="7.282267">
        <time>1970-01-01T00:00:00+00:00</time>
        <ele>2545.0</ele>
      </trkpt>
      <trkpt lat="45.617523" lon="7.282421">
        <time>1970-01-01T00:00:00+00:00</time>
        <ele>2537.0</ele>
      </trkpt>
      <trkpt lat="45.617672" lon="7.282528">
        <time>1970-01-01T00:00:00+00:00</time>
        <ele>2532.0</ele>
      </trkpt>
      <trkpt lat="45.617759" lon="7.28262">
        <time>1970-01-01T00:00:00+00:00</time>
        <ele>2529.0</ele>
      </trkpt>
      <trkpt lat="45.617803" lon="7.283016">
        <time>1970-01-01T00:00:00+00:00</time>
        <ele>2519.0</ele>
      </trkpt>
      <trkpt lat="45.617854" lon="7.283159">
        <time>1970-01-01T00:00:00+00:00</time>
        <ele>2515.0</ele>
      </trkpt>
      <trkpt lat="45.617916" lon="7.283416">
        <time>1970-01-01T00:00:00+00:00</time>
        <ele>2512.0</ele>
      </trkpt>
      <trkpt lat="45.61797" lon="7.283518">
        <time>1970-01-01T00:00:00+00:00</time>
        <ele>2510.0</ele>
      </trkpt>
      <trkpt lat="45.618041" lon="7.283823">
        <time>1970-01-01T00:00:00+00:00</time>
        <ele>2505.0</ele>
      </trkpt>
      <trkpt lat="45.618026" lon="7.283966">
        <time>1970-01-01T00:00:00+00:00</time>
        <ele>2504.0</ele>
      </trkpt>
      <trkpt lat="45.618029" lon="7.284293">
        <time>1970-01-01T00:00:00+00:00</time>
        <ele>2501.0</ele>
      </trkpt>
      <trkpt lat="45.618057" lon="7.284527">
        <time>1970-01-01T00:00:00+00:00</time>
        <ele>2499.0</ele>
      </trkpt>
      <trkpt lat="45.618118" lon="7.284832">
        <time>1970-01-01T00:00:00+00:00</time>
        <ele>2495.0</ele>
      </trkpt>
      <trkpt lat="45.618183" lon="7.285063">
        <time>1970-01-01T00:00:00+00:00</time>
        <ele>2493.0</ele>
      </trkpt>
      <trkpt lat="45.618208" lon="7.285305">
        <time>1970-01-01T00:00:00+00:00</time>
        <ele>2489.0</ele>
      </trkpt>
      <trkpt lat="45.618175" lon="7.285679">
        <time>1970-01-01T00:00:00+00:00</time>
        <ele>2484.0</ele>
      </trkpt>
      <trkpt lat="45.618226" lon="7.285845">
        <time>1970-01-01T00:00:00+00:00</time>
        <ele>2482.0</ele>
      </trkpt>
      <trkpt lat="45.618229" lon="7.286105">
        <time>1970-01-01T00:00:00+00:00</time>
        <ele>2479.0</ele>
      </trkpt>
      <trkpt lat="45.618372" lon="7.286366">
        <time>1970-01-01T00:00:00+00:00</time>
        <ele>2476.0</ele>
      </trkpt>
      <trkpt lat="45.618693" lon="7.286718">
        <time>1970-01-01T00:00:00+00:00</time>
        <ele>2474.0</ele>
      </trkpt>
      <trkpt lat="45.61876" lon="7.286755">
        <time>1970-01-01T00:00:00+00:00</time>
        <ele>2474.0</ele>
      </trkpt>
      <trkpt lat="45.618814" lon="7.286953">
        <time>1970-01-01T00:00:00+00:00</time>
        <ele>2471.0</ele>
      </trkpt>
      <trkpt lat="45.618922" lon="7.28714">
        <time>1970-01-01T00:00:00+00:00</time>
        <ele>2466.0</ele>
      </trkpt>
      <trkpt lat="45.61905" lon="7.287202">
        <time>1970-01-01T00:00:00+00:00</time>
        <ele>2462.0</ele>
      </trkpt>
      <trkpt lat="45.619178" lon="7.287323">
        <time>1970-01-01T00:00:00+00:00</time>
        <ele>2459.0</ele>
      </trkpt>
      <trkpt lat="45.61923" lon="7.287485">
        <time>1970-01-01T00:00:00+00:00</time>
        <ele>2456.0</ele>
      </trkpt>
      <trkpt lat="45.61925" lon="7.287672">
        <time>1970-01-01T00:00:00+00:00</time>
        <ele>2453.0</ele>
      </trkpt>
      <trkpt lat="45.619222" lon="7.287995">
        <time>1970-01-01T00:00:00+00:00</time>
        <ele>2449.0</ele>
      </trkpt>
      <trkpt lat="45.619358" lon="7.288695">
        <time>1970-01-01T00:00:00+00:00</time>
        <ele>2435.0</ele>
      </trkpt>
      <trkpt lat="45.619439" lon="7.28897">
        <time>1970-01-01T00:00:00+00:00</time>
        <ele>2426.0</ele>
      </trkpt>
      <trkpt lat="45.619327" lon="7.289393">
        <time>1970-01-01T00:00:00+00:00</time>
        <ele>2409.0</ele>
      </trkpt>
      <trkpt lat="45.619407" lon="7.290211">
        <time>1970-01-01T00:00:00+00:00</time>
        <ele>2392.0</ele>
      </trkpt>
      <trkpt lat="45.619373" lon="7.290497">
        <time>1970-01-01T00:00:00+00:00</time>
        <ele>2385.0</ele>
      </trkpt>
      <trkpt lat="45.619273" lon="7.290684">
        <time>1970-01-01T00:00:00+00:00</time>
        <ele>2378.0</ele>
      </trkpt>
      <trkpt lat="45.619109" lon="7.290794">
        <time>1970-01-01T00:00:00+00:00</time>
        <ele>2374.0</ele>
      </trkpt>
      <trkpt lat="45.61897" lon="7.290923">
        <time>1970-01-01T00:00:00+00:00</time>
        <ele>2372.0</ele>
      </trkpt>
      <trkpt lat="45.618804" lon="7.291308">
        <time>1970-01-01T00:00:00+00:00</time>
        <ele>2373.0</ele>
      </trkpt>
      <trkpt lat="45.618963" lon="7.291689">
        <time>1970-01-01T00:00:00+00:00</time>
        <ele>2366.0</ele>
      </trkpt>
      <trkpt lat="45.619063" lon="7.291744">
        <time>1970-01-01T00:00:00+00:00</time>
        <ele>2360.0</ele>
      </trkpt>
      <trkpt lat="45.619384" lon="7.29235">
        <time>1970-01-01T00:00:00+00:00</time>
        <ele>2345.0</ele>
      </trkpt>
      <trkpt lat="45.619712" lon="7.292878">
        <time>1970-01-01T00:00:00+00:00</time>
        <ele>2334.0</ele>
      </trkpt>
      <trkpt lat="45.619758" lon="7.293021">
        <time>1970-01-01T00:00:00+00:00</time>
        <ele>2332.0</ele>
      </trkpt>
      <trkpt lat="45.619776" lon="7.293187">
        <time>1970-01-01T00:00:00+00:00</time>
        <ele>2331.0</ele>
      </trkpt>
      <trkpt lat="45.619905" lon="7.293489">
        <time>1970-01-01T00:00:00+00:00</time>
        <ele>2326.0</ele>
      </trkpt>
      <trkpt lat="45.620117" lon="7.293839">
        <time>1970-01-01T00:00:00+00:00</time>
        <ele>2314.0</ele>
      </trkpt>
      <trkpt lat="45.620487" lon="7.294753">
        <time>1970-01-01T00:00:00+00:00</time>
        <ele>2284.0</ele>
      </trkpt>
      <trkpt lat="45.62051" lon="7.294936">
        <time>1970-01-01T00:00:00+00:00</time>
        <ele>2278.0</ele>
      </trkpt>
      <trkpt lat="45.620654" lon="7.295439">
        <time>1970-01-01T00:00:00+00:00</time>
        <ele>2255.0</ele>
      </trkpt>
      <trkpt lat="45.620731" lon="7.295648">
        <time>1970-01-01T00:00:00+00:00</time>
        <ele>2248.0</ele>
      </trkpt>
      <trkpt lat="45.620751" lon="7.295769">
        <time>1970-01-01T00:00:00+00:00</time>
        <ele>2245.0</ele>
      </trkpt>
      <trkpt lat="45.620749" lon="7.295898">
        <time>1970-01-01T00:00:00+00:00</time>
        <ele>2240.0</ele>
      </trkpt>
      <trkpt lat="45.620774" lon="7.295982">
        <time>1970-01-01T00:00:00+00:00</time>
        <ele>2236.0</ele>
      </trkpt>
      <trkpt lat="45.620672" lon="7.296125">
        <time>1970-01-01T00:00:00+00:00</time>
        <ele>2231.0</ele>
      </trkpt>
      <trkpt lat="45.620651" lon="7.296305">
        <time>1970-01-01T00:00:00+00:00</time>
        <ele>2225.0</ele>
      </trkpt>
      <trkpt lat="45.620584" lon="7.296345">
        <time>1970-01-01T00:00:00+00:00</time>
        <ele>2226.0</ele>
      </trkpt>
      <trkpt lat="45.620587" lon="7.296455">
        <time>1970-01-01T00:00:00+00:00</time>
        <ele>2223.0</ele>
      </trkpt>
      <trkpt lat="45.620469" lon="7.296826">
        <time>1970-01-01T00:00:00+00:00</time>
        <ele>2222.0</ele>
      </trkpt>
      <trkpt lat="45.620492" lon="7.296951">
        <time>1970-01-01T00:00:00+00:00</time>
        <ele>2219.0</ele>
      </trkpt>
      <trkpt lat="45.620672" lon="7.297387">
        <time>1970-01-01T00:00:00+00:00</time>
        <ele>2209.0</ele>
      </trkpt>
      <trkpt lat="45.620713" lon="7.297758">
        <time>1970-01-01T00:00:00+00:00</time>
        <ele>2205.0</ele>
      </trkpt>
      <trkpt lat="45.620715" lon="7.298033">
        <time>1970-01-01T00:00:00+00:00</time>
        <ele>2202.0</ele>
      </trkpt>
      <trkpt lat="45.620692" lon="7.298363">
        <time>1970-01-01T00:00:00+00:00</time>
        <ele>2200.0</ele>
      </trkpt>
      <trkpt lat="45.620656" lon="7.298591">
        <time>1970-01-01T00:00:00+00:00</time>
        <ele>2198.0</ele>
      </trkpt>
      <trkpt lat="45.620774" lon="7.299211">
        <time>1970-01-01T00:00:00+00:00</time>
        <ele>2189.0</ele>
      </trkpt>
      <trkpt lat="45.620751" lon="7.299376">
        <time>1970-01-01T00:00:00+00:00</time>
        <ele>2186.0</ele>
      </trkpt>
      <trkpt lat="45.620869" lon="7.299739">
        <time>1970-01-01T00:00:00+00:00</time>
        <ele>2179.0</ele>
      </trkpt>
      <trkpt lat="45.621013" lon="7.300051">
        <time>1970-01-01T00:00:00+00:00</time>
        <ele>2173.0</ele>
      </trkpt>
      <trkpt lat="45.62115" lon="7.300168">
        <time>1970-01-01T00:00:00+00:00</time>
        <ele>2168.0</ele>
      </trkpt>
      <trkpt lat="45.621164" lon="7.300297">
        <time>1970-01-01T00:00:00+00:00</time>
        <ele>2166.0</ele>
      </trkpt>
      <trkpt lat="45.62098" lon="7.300517">
        <time>1970-01-01T00:00:00+00:00</time>
        <ele>2164.0</ele>
      </trkpt>
      <trkpt lat="45.620874" lon="7.300517">
        <time>1970-01-01T00:00:00+00:00</time>
        <ele>2163.0</ele>
      </trkpt>
      <trkpt lat="45.620754" lon="7.300425">
        <time>1970-01-01T00:00:00+00:00</time>
        <ele>2161.0</ele>
      </trkpt>
      <trkpt lat="45.620533" lon="7.300157">
        <time>1970-01-01T00:00:00+00:00</time>
        <ele>2158.0</ele>
      </trkpt>
      <trkpt lat="45.620464" lon="7.300044">
        <time>1970-01-01T00:00:00+00:00</time>
        <ele>2159.0</ele>
      </trkpt>
      <trkpt lat="45.620433" lon="7.300213">
        <time>1970-01-01T00:00:00+00:00</time>
        <ele>2155.0</ele>
      </trkpt>
      <trkpt lat="45.620343" lon="7.300301">
        <time>1970-01-01T00:00:00+00:00</time>
        <ele>2151.0</ele>
      </trkpt>
      <trkpt lat="45.620251" lon="7.30029">
        <time>1970-01-01T00:00:00+00:00</time>
        <ele>2151.0</ele>
      </trkpt>
      <trkpt lat="45.620179" lon="7.300381">
        <time>1970-01-01T00:00:00+00:00</time>
        <ele>2149.0</ele>
      </trkpt>
      <trkpt lat="45.620092" lon="7.300366">
        <time>1970-01-01T00:00:00+00:00</time>
        <ele>2149.0</ele>
      </trkpt>
      <trkpt lat="45.62003" lon="7.300462">
        <time>1970-01-01T00:00:00+00:00</time>
        <ele>2148.0</ele>
      </trkpt>
      <trkpt lat="45.619936" lon="7.300646">
        <time>1970-01-01T00:00:00+00:00</time>
        <ele>2145.0</ele>
      </trkpt>
      <trkpt lat="45.619798" lon="7.300851">
        <time>1970-01-01T00:00:00+00:00</time>
        <ele>2142.0</ele>
      </trkpt>
      <trkpt lat="45.619711" lon="7.301201">
        <time>1970-01-01T00:00:00+00:00</time>
        <ele>2137.0</ele>
      </trkpt>
      <trkpt lat="45.619642" lon="7.301344">
        <time>1970-01-01T00:00:00+00:00</time>
        <ele>2131.0</ele>
      </trkpt>
      <trkpt lat="45.619578" lon="7.301419">
        <time>1970-01-01T00:00:00+00:00</time>
        <ele>2128.0</ele>
      </trkpt>
      <trkpt lat="45.619509" lon="7.301543">
        <time>1970-01-01T00:00:00+00:00</time>
        <ele>2122.0</ele>
      </trkpt>
      <trkpt lat="45.619524" lon="7.301634">
        <time>1970-01-01T00:00:00+00:00</time>
        <ele>2118.0</ele>
      </trkpt>
      <trkpt lat="45.619549" lon="7.301676">
        <time>1970-01-01T00:00:00+00:00</time>
        <ele>2116.0</ele>
      </trkpt>
      <trkpt lat="45.619658" lon="7.301751">
        <time>1970-01-01T00:00:00+00:00</time>
        <ele>2114.0</ele>
      </trkpt>
      <trkpt lat="45.619638" lon="7.301831">
        <time>1970-01-01T00:00:00+00:00</time>
        <ele>2112.0</ele>
      </trkpt>
      <trkpt lat="45.619738" lon="7.301912">
        <time>1970-01-01T00:00:00+00:00</time>
        <ele>2111.0</ele>
      </trkpt>
      <trkpt lat="45.619547" lon="7.302013">
        <time>1970-01-01T00:00:00+00:00</time>
        <ele>2104.0</ele>
      </trkpt>
      <trkpt lat="45.619504" lon="7.302096">
        <time>1970-01-01T00:00:00+00:00</time>
        <ele>2101.0</ele>
      </trkpt>
      <trkpt lat="45.619535" lon="7.302197">
        <time>1970-01-01T00:00:00+00:00</time>
        <ele>2098.0</ele>
      </trkpt>
      <trkpt lat="45.619604" lon="7.302278">
        <time>1970-01-01T00:00:00+00:00</time>
        <ele>2097.0</ele>
      </trkpt>
      <trkpt lat="45.61964" lon="7.302444">
        <time>1970-01-01T00:00:00+00:00</time>
        <ele>2092.0</ele>
      </trkpt>
      <trkpt lat="45.619696" lon="7.302501">
        <time>1970-01-01T00:00:00+00:00</time>
        <ele>2091.0</ele>
      </trkpt>
      <trkpt lat="45.619954" lon="7.302563">
        <time>1970-01-01T00:00:00+00:00</time>
        <ele>2088.0</ele>
      </trkpt>
      <trkpt lat="45.619928" lon="7.302646">
        <time>1970-01-01T00:00:00+00:00</time>
        <ele>2086.0</ele>
      </trkpt>
      <trkpt lat="45.619974" lon="7.302656">
        <time>1970-01-01T00:00:00+00:00</time>
        <ele>2085.0</ele>
      </trkpt>
      <trkpt lat="45.620017" lon="7.302716">
        <time>1970-01-01T00:00:00+00:00</time>
        <ele>2082.0</ele>
      </trkpt>
      <trkpt lat="45.620124" lon="7.302778">
        <time>1970-01-01T00:00:00+00:00</time>
        <ele>2079.0</ele>
      </trkpt>
      <trkpt lat="45.62021" lon="7.302802">
        <time>1970-01-01T00:00:00+00:00</time>
        <ele>2077.0</ele>
      </trkpt>
      <trkpt lat="45.620264" lon="7.302784">
        <time>1970-01-01T00:00:00+00:00</time>
        <ele>2077.0</ele>
      </trkpt>
      <trkpt lat="45.620442" lon="7.302763">
        <time>1970-01-01T00:00:00+00:00</time>
        <ele>2075.0</ele>
      </trkpt>
      <trkpt lat="45.620986" lon="7.303186">
        <time>1970-01-01T00:00:00+00:00</time>
        <ele>2054.0</ele>
      </trkpt>
      <trkpt lat="45.620944" lon="7.303412">
        <time>1970-01-01T00:00:00+00:00</time>
        <ele>2044.0</ele>
      </trkpt>
      <trkpt lat="45.62102" lon="7.303738">
        <time>1970-01-01T00:00:00+00:00</time>
        <ele>2037.0</ele>
      </trkpt>
      <trkpt lat="45.621176" lon="7.303903">
        <time>1970-01-01T00:00:00+00:00</time>
        <ele>2034.0</ele>
      </trkpt>
      <trkpt lat="45.621283" lon="7.30386">
        <time>1970-01-01T00:00:00+00:00</time>
        <ele>2036.0</ele>
      </trkpt>
      <trkpt lat="45.621445" lon="7.303895">
        <time>1970-01-01T00:00:00+00:00</time>
        <ele>2037.0</ele>
      </trkpt>
      <trkpt lat="45.621581" lon="7.303873">
        <time>1970-01-01T00:00:00+00:00</time>
        <ele>2038.0</ele>
      </trkpt>
      <trkpt lat="45.621934" lon="7.304107">
        <time>1970-01-01T00:00:00+00:00</time>
        <ele>2024.0</ele>
      </trkpt>
      <trkpt lat="45.621913" lon="7.304166">
        <time>1970-01-01T00:00:00+00:00</time>
        <ele>2021.0</ele>
      </trkpt>
      <trkpt lat="45.621967" lon="7.304243">
        <time>1970-01-01T00:00:00+00:00</time>
        <ele>2018.0</ele>
      </trkpt>
      <trkpt lat="45.622052" lon="7.304298">
        <time>1970-01-01T00:00:00+00:00</time>
        <ele>2015.0</ele>
      </trkpt>
      <trkpt lat="45.622022" lon="7.304355">
        <time>1970-01-01T00:00:00+00:00</time>
        <ele>2014.0</ele>
      </trkpt>
      <trkpt lat="45.622112" lon="7.304375">
        <time>1970-01-01T00:00:00+00:00</time>
        <ele>2012.0</ele>
      </trkpt>
      <trkpt lat="45.622041" lon="7.304457">
        <time>1970-01-01T00:00:00+00:00</time>
        <ele>2009.0</ele>
      </trkpt>
      <trkpt lat="45.622163" lon="7.304476">
        <time>1970-01-01T00:00:00+00:00</time>
        <ele>2007.0</ele>
      </trkpt>
      <trkpt lat="45.622087" lon="7.304546">
        <time>1970-01-01T00:00:00+00:00</time>
        <ele>2004.0</ele>
      </trkpt>
      <trkpt lat="45.622155" lon="7.304587">
        <time>1970-01-01T00:00:00+00:00</time>
        <ele>2002.0</ele>
      </trkpt>
      <trkpt lat="45.622152" lon="7.304623">
        <time>1970-01-01T00:00:00+00:00</time>
        <ele>2000.0</ele>
      </trkpt>
      <trkpt lat="45.622194" lon="7.304669">
        <time>1970-01-01T00:00:00+00:00</time>
        <ele>1998.0</ele>
      </trkpt>
      <trkpt lat="45.62218" lon="7.304733">
        <time>1970-01-01T00:00:00+00:00</time>
        <ele>1995.0</ele>
      </trkpt>
      <trkpt lat="45.622275" lon="7.304741">
        <time>1970-01-01T00:00:00+00:00</time>
        <ele>1995.0</ele>
      </trkpt>
      <trkpt lat="45.622294" lon="7.304803">
        <time>1970-01-01T00:00:00+00:00</time>
        <ele>1992.0</ele>
      </trkpt>
      <trkpt lat="45.622221" lon="7.304869">
        <time>1970-01-01T00:00:00+00:00</time>
        <ele>1989.0</ele>
      </trkpt>
      <trkpt lat="45.622306" lon="7.304939">
        <time>1970-01-01T00:00:00+00:00</time>
        <ele>1987.0</ele>
      </trkpt>
      <trkpt lat="45.622417" lon="7.30495">
        <time>1970-01-01T00:00:00+00:00</time>
        <ele>1987.0</ele>
      </trkpt>
      <trkpt lat="45.622377" lon="7.305079">
        <time>1970-01-01T00:00:00+00:00</time>
        <ele>1983.0</ele>
      </trkpt>
      <trkpt lat="45.622453" lon="7.30513">
        <time>1970-01-01T00:00:00+00:00</time>
        <ele>1983.0</ele>
      </trkpt>
      <trkpt lat="45.62249" lon="7.305271">
        <time>1970-01-01T00:00:00+00:00</time>
        <ele>1979.0</ele>
      </trkpt>
      <trkpt lat="45.622544" lon="7.305309">
        <time>1970-01-01T00:00:00+00:00</time>
        <ele>1978.0</ele>
      </trkpt>
      <trkpt lat="45.622561" lon="7.305367">
        <time>1970-01-01T00:00:00+00:00</time>
        <ele>1976.0</ele>
      </trkpt>
      <trkpt lat="45.622551" lon="7.305395">
        <time>1970-01-01T00:00:00+00:00</time>
        <ele>1974.0</ele>
      </trkpt>
      <trkpt lat="45.62276" lon="7.305747">
        <time>1970-01-01T00:00:00+00:00</time>
        <ele>1956.0</ele>
      </trkpt>
      <trkpt lat="45.622869" lon="7.306002">
        <time>1970-01-01T00:00:00+00:00</time>
        <ele>1946.0</ele>
      </trkpt>
      <trkpt lat="45.622888" lon="7.306164">
        <time>1970-01-01T00:00:00+00:00</time>
        <ele>1939.0</ele>
      </trkpt>
      <trkpt lat="45.622903" lon="7.306197">
        <time>1970-01-01T00:00:00+00:00</time>
        <ele>1938.0</ele>
      </trkpt>
      <trkpt lat="45.622867" lon="7.306292">
        <time>1970-01-01T00:00:00+00:00</time>
        <ele>1934.0</ele>
      </trkpt>
      <trkpt lat="45.622952" lon="7.306307">
        <time>1970-01-01T00:00:00+00:00</time>
        <ele>1933.0</ele>
      </trkpt>
      <trkpt lat="45.622929" lon="7.30638">
        <time>1970-01-01T00:00:00+00:00</time>
        <ele>1930.0</ele>
      </trkpt>
      <trkpt lat="45.622944" lon="7.306402">
        <time>1970-01-01T00:00:00+00:00</time>
        <ele>1929.0</ele>
      </trkpt>
      <trkpt lat="45.622989" lon="7.306398">
        <time>1970-01-01T00:00:00+00:00</time>
        <ele>1929.0</ele>
      </trkpt>
      <trkpt lat="45.622965" lon="7.30649">
        <time>1970-01-01T00:00:00+00:00</time>
        <ele>1925.0</ele>
      </trkpt>
      <trkpt lat="45.623055" lon="7.306548">
        <time>1970-01-01T00:00:00+00:00</time>
        <ele>1924.0</ele>
      </trkpt>
      <trkpt lat="45.623064" lon="7.306591">
        <time>1970-01-01T00:00:00+00:00</time>
        <ele>1923.0</ele>
      </trkpt>
      <trkpt lat="45.623096" lon="7.306595">
        <time>1970-01-01T00:00:00+00:00</time>
        <ele>1923.0</ele>
      </trkpt>
      <trkpt lat="45.623065" lon="7.306656">
        <time>1970-01-01T00:00:00+00:00</time>
        <ele>1920.0</ele>
      </trkpt>
      <trkpt lat="45.623074" lon="7.306686">
        <time>1970-01-01T00:00:00+00:00</time>
        <ele>1920.0</ele>
      </trkpt>
      <trkpt lat="45.623224" lon="7.306715">
        <time>1970-01-01T00:00:00+00:00</time>
        <ele>1918.0</ele>
      </trkpt>
      <trkpt lat="45.623182" lon="7.30689">
        <time>1970-01-01T00:00:00+00:00</time>
        <ele>1913.0</ele>
      </trkpt>
      <trkpt lat="45.623216" lon="7.306915">
        <time>1970-01-01T00:00:00+00:00</time>
        <ele>1912.0</ele>
      </trkpt>
      <trkpt lat="45.623453" lon="7.306848">
        <time>1970-01-01T00:00:00+00:00</time>
        <ele>1909.0</ele>
      </trkpt>
      <trkpt lat="45.623677" lon="7.306976">
        <time>1970-01-01T00:00:00+00:00</time>
        <ele>1899.0</ele>
      </trkpt>
      <trkpt lat="45.623704" lon="7.307067">
        <time>1970-01-01T00:00:00+00:00</time>
        <ele>1897.0</ele>
      </trkpt>
      <trkpt lat="45.623844" lon="7.307214">
        <time>1970-01-01T00:00:00+00:00</time>
        <ele>1889.0</ele>
      </trkpt>
      <trkpt lat="45.623936" lon="7.307364">
        <time>1970-01-01T00:00:00+00:00</time>
        <ele>1883.0</ele>
      </trkpt>
      <trkpt lat="45.62401" lon="7.307433">
        <time>1970-01-01T00:00:00+00:00</time>
        <ele>1877.0</ele>
      </trkpt>
      <trkpt lat="45.624055" lon="7.307513">
        <time>1970-01-01T00:00:00+00:00</time>
        <ele>1872.0</ele>
      </trkpt>
      <trkpt lat="45.624107" lon="7.307667">
        <time>1970-01-01T00:00:00+00:00</time>
        <ele>1865.0</ele>
      </trkpt>
      <trkpt lat="45.62414" lon="7.307696">
        <time>1970-01-01T00:00:00+00:00</time>
        <ele>1864.0</ele>
      </trkpt>
      <trkpt lat="45.624158" lon="7.307784">
        <time>1970-01-01T00:00:00+00:00</time>
        <ele>1862.0</ele>
      </trkpt>
      <trkpt lat="45.62419" lon="7.307846">
        <time>1970-01-01T00:00:00+00:00</time>
        <ele>1861.0</ele>
      </trkpt>
      <trkpt lat="45.624207" lon="7.307974">
        <time>1970-01-01T00:00:00+00:00</time>
        <ele>1859.0</ele>
      </trkpt>
      <trkpt lat="45.624234" lon="7.308023">
        <time>1970-01-01T00:00:00+00:00</time>
        <ele>1859.0</ele>
      </trkpt>
      <trkpt lat="45.62424" lon="7.308115">
        <time>1970-01-01T00:00:00+00:00</time>
        <ele>1857.0</ele>
      </trkpt>
      <trkpt lat="45.624356" lon="7.308282">
        <time>1970-01-01T00:00:00+00:00</time>
        <ele>1855.0</ele>
      </trkpt>
      <trkpt lat="45.624415" lon="7.308333">
        <time>1970-01-01T00:00:00+00:00</time>
        <ele>1854.0</ele>
      </trkpt>
      <trkpt lat="45.624465" lon="7.308435">
        <time>1970-01-01T00:00:00+00:00</time>
        <ele>1852.0</ele>
      </trkpt>
      <trkpt lat="45.624494" lon="7.308453">
        <time>1970-01-01T00:00:00+00:00</time>
        <ele>1851.0</ele>
      </trkpt>
      <trkpt lat="45.62454" lon="7.308555">
        <time>1970-01-01T00:00:00+00:00</time>
        <ele>1848.0</ele>
      </trkpt>
      <trkpt lat="45.624661" lon="7.308697">
        <time>1970-01-01T00:00:00+00:00</time>
        <ele>1845.0</ele>
      </trkpt>
      <trkpt lat="45.624733" lon="7.308737">
        <time>1970-01-01T00:00:00+00:00</time>
        <ele>1842.0</ele>
      </trkpt>
      <trkpt lat="45.624716" lon="7.308423">
        <time>1970-01-01T00:00:00+00:00</time>
        <ele>1847.0</ele>
      </trkpt>
      <trkpt lat="45.624768" lon="7.308091">
        <time>1970-01-01T00:00:00+00:00</time>
        <ele>1848.0</ele>
      </trkpt>
      <trkpt lat="45.624833" lon="7.308205">
        <time>1970-01-01T00:00:00+00:00</time>
        <ele>1844.0</ele>
      </trkpt>
      <trkpt lat="45.625005" lon="7.308406">
        <time>1970-01-01T00:00:00+00:00</time>
        <ele>1835.0</ele>
      </trkpt>
      <trkpt lat="45.625062" lon="7.30828">
        <time>1970-01-01T00:00:00+00:00</time>
        <ele>1836.0</ele>
      </trkpt>
      <trkpt lat="45.625343" lon="7.308461">
        <time>1970-01-01T00:00:00+00:00</time>
        <ele>1827.0</ele>
      </trkpt>
      <trkpt lat="45.625528" lon="7.308492">
        <time>1970-01-01T00:00:00+00:00</time>
        <ele>1823.0</ele>
      </trkpt>
      <trkpt lat="45.625898" lon="7.309045">
        <time>1970-01-01T00:00:00+00:00</time>
        <ele>1808.0</ele>
      </trkpt>
      <trkpt lat="45.626483" lon="7.309368">
        <time>1970-01-01T00:00:00+00:00</time>
        <ele>1806.0</ele>
      </trkpt>
      <trkpt lat="45.626636" lon="7.30967">
        <time>1970-01-01T00:00:00+00:00</time>
        <ele>1796.0</ele>
      </trkpt>
      <trkpt lat="45.626235" lon="7.309813">
        <time>1970-01-01T00:00:00+00:00</time>
        <ele>1779.0</ele>
      </trkpt>
      <trkpt lat="45.626113" lon="7.309721">
        <time>1970-01-01T00:00:00+00:00</time>
        <ele>1785.0</ele>
      </trkpt>
      <trkpt lat="45.626041" lon="7.309809">
        <time>1970-01-01T00:00:00+00:00</time>
        <ele>1785.0</ele>
      </trkpt>
      <trkpt lat="45.626102" lon="7.31011">
        <time>1970-01-01T00:00:00+00:00</time>
        <ele>1775.0</ele>
      </trkpt>
      <trkpt lat="45.626193" lon="7.310302">
        <time>1970-01-01T00:00:00+00:00</time>
        <ele>1768.0</ele>
      </trkpt>
      <trkpt lat="45.62635" lon="7.310444">
        <time>1970-01-01T00:00:00+00:00</time>
        <ele>1759.0</ele>
      </trkpt>
      <trkpt lat="45.626318" lon="7.310729">
        <time>1970-01-01T00:00:00+00:00</time>
        <ele>1756.0</ele>
      </trkpt>
      <trkpt lat="45.626446" lon="7.311115">
        <time>1970-01-01T00:00:00+00:00</time>
        <ele>1740.0</ele>
      </trkpt>
      <trkpt lat="45.626408" lon="7.311291">
        <time>1970-01-01T00:00:00+00:00</time>
        <ele>1738.0</ele>
      </trkpt>
      <trkpt lat="45.626331" lon="7.311368">
        <time>1970-01-01T00:00:00+00:00</time>
        <ele>1740.0</ele>
      </trkpt>
      <trkpt lat="45.626292" lon="7.311463">
        <time>1970-01-01T00:00:00+00:00</time>
        <ele>1739.0</ele>
      </trkpt>
      <trkpt lat="45.626246" lon="7.311724">
        <time>1970-01-01T00:00:00+00:00</time>
        <ele>1730.0</ele>
      </trkpt>
      <trkpt lat="45.626046" lon="7.312186">
        <time>1970-01-01T00:00:00+00:00</time>
        <ele>1722.0</ele>
      </trkpt>
      <trkpt lat="45.626028" lon="7.31234">
        <time>1970-01-01T00:00:00+00:00</time>
        <ele>1720.0</ele>
      </trkpt>
      <trkpt lat="45.625987" lon="7.312443">
        <time>1970-01-01T00:00:00+00:00</time>
        <ele>1719.0</ele>
      </trkpt>
      <trkpt lat="45.625884" lon="7.312502">
        <time>1970-01-01T00:00:00+00:00</time>
        <ele>1720.0</ele>
      </trkpt>
      <trkpt lat="45.625825" lon="7.312641">
        <time>1970-01-01T00:00:00+00:00</time>
        <ele>1719.0</ele>
      </trkpt>
      <trkpt lat="45.6261" lon="7.313052">
        <time>1970-01-01T00:00:00+00:00</time>
        <ele>1707.0</ele>
      </trkpt>
      <trkpt lat="45.626097" lon="7.313301">
        <time>1970-01-01T00:00:00+00:00</time>
        <ele>1702.0</ele>
      </trkpt>
      <trkpt lat="45.625941" lon="7.314095">
        <time>1970-01-01T00:00:00+00:00</time>
        <ele>1693.0</ele>
      </trkpt>
      <trkpt lat="45.625934" lon="7.314224">
        <time>1970-01-01T00:00:00+00:00</time>
        <ele>1691.0</ele>
      </trkpt>
      <trkpt lat="45.625852" lon="7.314385">
        <time>1970-01-01T00:00:00+00:00</time>
        <ele>1693.0</ele>
      </trkpt>
      <trkpt lat="45.625799" lon="7.314535">
        <time>1970-01-01T00:00:00+00:00</time>
        <ele>1694.0</ele>
      </trkpt>
      <trkpt lat="45.625856" lon="7.31471">
        <time>1970-01-01T00:00:00+00:00</time>
        <ele>1691.0</ele>
      </trkpt>
      <trkpt lat="45.625763" lon="7.315029">
        <time>1970-01-01T00:00:00+00:00</time>
        <ele>1697.0</ele>
      </trkpt>
      <trkpt lat="45.625786" lon="7.315136">
        <time>1970-01-01T00:00:00+00:00</time>
        <ele>1697.0</ele>
      </trkpt>
      <trkpt lat="45.625812" lon="7.31513">
        <time>1970-01-01T00:00:00+00:00</time>
        <ele>1695.0</ele>
      </trkpt>
      <trkpt lat="45.625839" lon="7.31507">
        <time>1970-01-01T00:00:00+00:00</time>
        <ele>1693.0</ele>
      </trkpt>
      <trkpt lat="45.625905" lon="7.315011">
        <time>1970-01-01T00:00:00+00:00</time>
        <ele>1688.0</ele>
      </trkpt>
      <trkpt lat="45.625936" lon="7.315014">
        <time>1970-01-01T00:00:00+00:00</time>
        <ele>1686.0</ele>
      </trkpt>
      <trkpt lat="45.625898" lon="7.315153">
        <time>1970-01-01T00:00:00+00:00</time>
        <ele>1690.0</ele>
      </trkpt>
      <trkpt lat="45.62594" lon="7.315317">
        <time>1970-01-01T00:00:00+00:00</time>
        <ele>1687.0</ele>
      </trkpt>
      <trkpt lat="45.625947" lon="7.315405">
        <time>1970-01-01T00:00:00+00:00</time>
        <ele>1686.0</ele>
      </trkpt>
      <trkpt lat="45.625981" lon="7.315466">
        <time>1970-01-01T00:00:00+00:00</time>
        <ele>1684.0</ele>
      </trkpt>
      <trkpt lat="45.625988" lon="7.315527">
        <time>1970-01-01T00:00:00+00:00</time>
        <ele>1683.0</ele>
      </trkpt>
      <trkpt lat="45.626019" lon="7.315529">
        <time>1970-01-01T00:00:00+00:00</time>
        <ele>1681.0</ele>
      </trkpt>
      <trkpt lat="45.626057" lon="7.315611">
        <time>1970-01-01T00:00:00+00:00</time>
        <ele>1678.0</ele>
      </trkpt>
      <trkpt lat="45.626082" lon="7.31562">
        <time>1970-01-01T00:00:00+00:00</time>
        <ele>1676.0</ele>
      </trkpt>
      <trkpt lat="45.626086" lon="7.315675">
        <time>1970-01-01T00:00:00+00:00</time>
        <ele>1675.0</ele>
      </trkpt>
      <trkpt lat="45.626061" lon="7.315784">
        <time>1970-01-01T00:00:00+00:00</time>
        <ele>1676.0</ele>
      </trkpt>
      <trkpt lat="45.626099" lon="7.315949">
        <time>1970-01-01T00:00:00+00:00</time>
        <ele>1672.0</ele>
      </trkpt>
      <trkpt lat="45.626071" lon="7.316163">
        <time>1970-01-01T00:00:00+00:00</time>
        <ele>1672.0</ele>
      </trkpt>
      <trkpt lat="45.626017" lon="7.316367">
        <time>1970-01-01T00:00:00+00:00</time>
        <ele>1673.0</ele>
      </trkpt>
      <trkpt lat="45.626024" lon="7.316441">
        <time>1970-01-01T00:00:00+00:00</time>
        <ele>1672.0</ele>
      </trkpt>
      <trkpt lat="45.62608" lon="7.316566">
        <time>1970-01-01T00:00:00+00:00</time>
        <ele>1667.0</ele>
      </trkpt>
      <trkpt lat="45.626082" lon="7.316619">
        <time>1970-01-01T00:00:00+00:00</time>
        <ele>1666.0</ele>
      </trkpt>
      <trkpt lat="45.626138" lon="7.316764">
        <time>1970-01-01T00:00:00+00:00</time>
        <ele>1661.0</ele>
      </trkpt>
      <trkpt lat="45.626109" lon="7.31685">
        <time>1970-01-01T00:00:00+00:00</time>
        <ele>1663.0</ele>
      </trkpt>
      <trkpt lat="45.626104" lon="7.316924">
        <time>1970-01-01T00:00:00+00:00</time>
        <ele>1662.0</ele>
      </trkpt>
      <trkpt lat="45.626123" lon="7.31701">
        <time>1970-01-01T00:00:00+00:00</time>
        <ele>1661.0</ele>
      </trkpt>
      <trkpt lat="45.62617" lon="7.31707">
        <time>1970-01-01T00:00:00+00:00</time>
        <ele>1657.0</ele>
      </trkpt>
      <trkpt lat="45.626217" lon="7.317022">
        <time>1970-01-01T00:00:00+00:00</time>
        <ele>1654.0</ele>
      </trkpt>
      <trkpt lat="45.62628" lon="7.316999">
        <time>1970-01-01T00:00:00+00:00</time>
        <ele>1651.0</ele>
      </trkpt>
      <trkpt lat="45.626298" lon="7.317026">
        <time>1970-01-01T00:00:00+00:00</time>
        <ele>1650.0</ele>
      </trkpt>
      <trkpt lat="45.626287" lon="7.317068">
        <time>1970-01-01T00:00:00+00:00</time>
        <ele>1650.0</ele>
      </trkpt>
      <trkpt lat="45.626299" lon="7.317147">
        <time>1970-01-01T00:00:00+00:00</time>
        <ele>1649.0</ele>
      </trkpt>
      <trkpt lat="45.626333" lon="7.317152">
        <time>1970-01-01T00:00:00+00:00</time>
        <ele>1647.0</ele>
      </trkpt>
      <trkpt lat="45.62641" lon="7.316964">
        <time>1970-01-01T00:00:00+00:00</time>
        <ele>1641.0</ele>
      </trkpt>
      <trkpt lat="45.626432" lon="7.316992">
        <time>1970-01-01T00:00:00+00:00</time>
        <ele>1639.0</ele>
      </trkpt>
      <trkpt lat="45.626431" lon="7.317115">
        <time>1970-01-01T00:00:00+00:00</time>
        <ele>1638.0</ele>
      </trkpt>
      <trkpt lat="45.626461" lon="7.317175">
        <time>1970-01-01T00:00:00+00:00</time>
        <ele>1635.0</ele>
      </trkpt>
      <trkpt lat="45.626504" lon="7.317131">
        <time>1970-01-01T00:00:00+00:00</time>
        <ele>1631.0</ele>
      </trkpt>
      <trkpt lat="45.626531" lon="7.317127">
        <time>1970-01-01T00:00:00+00:00</time>
        <ele>1629.0</ele>
      </trkpt>
      <trkpt lat="45.626539" lon="7.317152">
        <time>1970-01-01T00:00:00+00:00</time>
        <ele>1628.0</ele>
      </trkpt>
      <trkpt lat="45.62657" lon="7.317158">
        <time>1970-01-01T00:00:00+00:00</time>
        <ele>1625.0</ele>
      </trkpt>
      <trkpt lat="45.626592" lon="7.317074">
        <time>1970-01-01T00:00:00+00:00</time>
        <ele>1623.0</ele>
      </trkpt>
      <trkpt lat="45.626654" lon="7.317046">
        <time>1970-01-01T00:00:00+00:00</time>
        <ele>1617.0</ele>
      </trkpt>
      <trkpt lat="45.626682" lon="7.316955">
        <time>1970-01-01T00:00:00+00:00</time>
        <ele>1615.0</ele>
      </trkpt>
      <trkpt lat="45.626717" lon="7.316771">
        <time>1970-01-01T00:00:00+00:00</time>
        <ele>1612.0</ele>
      </trkpt>
      <trkpt lat="45.626708" lon="7.316604">
        <time>1970-01-01T00:00:00+00:00</time>
        <ele>1614.0</ele>
      </trkpt>
      <trkpt lat="45.626722" lon="7.316489">
        <time>1970-01-01T00:00:00+00:00</time>
        <ele>1613.0</ele>
      </trkpt>
      <trkpt lat="45.626748" lon="7.31642">
        <time>1970-01-01T00:00:00+00:00</time>
        <ele>1612.0</ele>
      </trkpt>
      <trkpt lat="45.626772" lon="7.316371">
        <time>1970-01-01T00:00:00+00:00</time>
        <ele>1611.0</ele>
      </trkpt>
      <trkpt lat="45.626886" lon="7.31629">
        <time>1970-01-01T00:00:00+00:00</time>
        <ele>1603.0</ele>
      </trkpt>
      <trkpt lat="45.626998" lon="7.316157">
        <time>1970-01-01T00:00:00+00:00</time>
        <ele>1595.0</ele>
      </trkpt>
      <trkpt lat="45.627018" lon="7.316155">
        <time>1970-01-01T00:00:00+00:00</time>
        <ele>1594.0</ele>
      </trkpt>
      <trkpt lat="45.627023" lon="7.316277">
        <time>1970-01-01T00:00:00+00:00</time>
        <ele>1592.0</ele>
      </trkpt>
      <trkpt lat="45.627065" lon="7.316384">
        <time>1970-01-01T00:00:00+00:00</time>
        <ele>1588.0</ele>
      </trkpt>
      <trkpt lat="45.626945" lon="7.316562">
        <time>1970-01-01T00:00:00+00:00</time>
        <ele>1598.0</ele>
      </trkpt>
      <trkpt lat="45.62697" lon="7.316608">
        <time>1970-01-01T00:00:00+00:00</time>
        <ele>1595.0</ele>
      </trkpt>
      <trkpt lat="45.626959" lon="7.316617">
        <time>1970-01-01T00:00:00+00:00</time>
        <ele>1596.0</ele>
      </trkpt>
      <trkpt lat="45.626971" lon="7.316704">
        <time>1970-01-01T00:00:00+00:00</time>
        <ele>1595.0</ele>
      </trkpt>
      <trkpt lat="45.627004" lon="7.316754">
        <time>1970-01-01T00:00:00+00:00</time>
        <ele>1592.0</ele>
      </trkpt>
      <trkpt lat="45.627054" lon="7.316748">
        <time>1970-01-01T00:00:00+00:00</time>
        <ele>1587.0</ele>
      </trkpt>
      <trkpt lat="45.627036" lon="7.316815">
        <time>1970-01-01T00:00:00+00:00</time>
        <ele>1588.0</ele>
      </trkpt>
      <trkpt lat="45.627117" lon="7.316857">
        <time>1970-01-01T00:00:00+00:00</time>
        <ele>1580.0</ele>
      </trkpt>
      <trkpt lat="45.627078" lon="7.316973">
        <time>1970-01-01T00:00:00+00:00</time>
        <ele>1582.0</ele>
      </trkpt>
      <trkpt lat="45.627121" lon="7.317124">
        <time>1970-01-01T00:00:00+00:00</time>
        <ele>1575.0</ele>
      </trkpt>
      <trkpt lat="45.627166" lon="7.317184">
        <time>1970-01-01T00:00:00+00:00</time>
        <ele>1570.0</ele>
      </trkpt>
      <trkpt lat="45.627151" lon="7.317431">
        <time>1970-01-01T00:00:00+00:00</time>
        <ele>1567.0</ele>
      </trkpt>
      <trkpt lat="45.627129" lon="7.317494">
        <time>1970-01-01T00:00:00+00:00</time>
        <ele>1568.0</ele>
      </trkpt>
      <trkpt lat="45.627153" lon="7.317571">
        <time>1970-01-01T00:00:00+00:00</time>
        <ele>1564.0</ele>
      </trkpt>
      <trkpt lat="45.627124" lon="7.317731">
        <time>1970-01-01T00:00:00+00:00</time>
        <ele>1563.0</ele>
      </trkpt>
      <trkpt lat="45.627113" lon="7.317932">
        <time>1970-01-01T00:00:00+00:00</time>
        <ele>1559.0</ele>
      </trkpt>
      <trkpt lat="45.627117" lon="7.318113">
        <time>1970-01-01T00:00:00+00:00</time>
        <ele>1554.0</ele>
      </trkpt>
      <trkpt lat="45.627174" lon="7.318438">
        <time>1970-01-01T00:00:00+00:00</time>
        <ele>1546.0</ele>
      </trkpt>
      <trkpt lat="45.627243" lon="7.318601">
        <time>1970-01-01T00:00:00+00:00</time>
        <ele>1537.0</ele>
      </trkpt>
      <trkpt lat="45.627339" lon="7.318716">
        <time>1970-01-01T00:00:00+00:00</time>
        <ele>1529.0</ele>
      </trkpt>
      <trkpt lat="45.627386" lon="7.318863">
        <time>1970-01-01T00:00:00+00:00</time>
        <ele>1523.0</ele>
      </trkpt>
      <trkpt lat="45.627471" lon="7.318984">
        <time>1970-01-01T00:00:00+00:00</time>
        <ele>1515.0</ele>
      </trkpt>
      <trkpt lat="45.627505" lon="7.319111">
        <time>1970-01-01T00:00:00+00:00</time>
        <ele>1511.0</ele>
      </trkpt>
      <trkpt lat="45.627552" lon="7.319136">
        <time>1970-01-01T00:00:00+00:00</time>
        <ele>1508.0</ele>
      </trkpt>
      <trkpt lat="45.627582" lon="7.319206">
        <time>1970-01-01T00:00:00+00:00</time>
        <ele>1506.0</ele>
      </trkpt>
      <trkpt lat="45.627576" lon="7.319376">
        <time>1970-01-01T00:00:00+00:00</time>
        <ele>1502.0</ele>
      </trkpt>
      <trkpt lat="45.627591" lon="7.319409">
        <time>1970-01-01T00:00:00+00:00</time>
        <ele>1501.0</ele>
      </trkpt>
      <trkpt lat="45.62769" lon="7.319485">
        <time>1970-01-01T00:00:00+00:00</time>
        <ele>1496.0</ele>
      </trkpt>
      <trkpt lat="45.627711" lon="7.319537">
        <time>1970-01-01T00:00:00+00:00</time>
        <ele>1494.0</ele>
      </trkpt>
      <trkpt lat="45.62775" lon="7.319571">
        <time>1970-01-01T00:00:00+00:00</time>
        <ele>1491.0</ele>
      </trkpt>
      <trkpt lat="45.627778" lon="7.319537">
        <time>1970-01-01T00:00:00+00:00</time>
        <ele>1491.0</ele>
      </trkpt>
      <trkpt lat="45.627765" lon="7.319463">
        <time>1970-01-01T00:00:00+00:00</time>
        <ele>1493.0</ele>
      </trkpt>
      <trkpt lat="45.627778" lon="7.31937">
        <time>1970-01-01T00:00:00+00:00</time>
        <ele>1493.0</ele>
      </trkpt>
      <trkpt lat="45.627868" lon="7.319289">
        <time>1970-01-01T00:00:00+00:00</time>
        <ele>1489.0</ele>
      </trkpt>
      <trkpt lat="45.62789" lon="7.319319">
        <time>1970-01-01T00:00:00+00:00</time>
        <ele>1488.0</ele>
      </trkpt>
      <trkpt lat="45.627892" lon="7.319409">
        <time>1970-01-01T00:00:00+00:00</time>
        <ele>1487.0</ele>
      </trkpt>
      <trkpt lat="45.627969" lon="7.319587">
        <time>1970-01-01T00:00:00+00:00</time>
        <ele>1482.0</ele>
      </trkpt>
      <trkpt lat="45.627987" lon="7.319595">
        <time>1970-01-01T00:00:00+00:00</time>
        <ele>1481.0</ele>
      </trkpt>
      <trkpt lat="45.627987" lon="7.31956">
        <time>1970-01-01T00:00:00+00:00</time>
        <ele>1481.0</ele>
      </trkpt>
      <trkpt lat="45.628017" lon="7.319539">
        <time>1970-01-01T00:00:00+00:00</time>
        <ele>1480.0</ele>
      </trkpt>
      <trkpt lat="45.62807" lon="7.319599">
        <time>1970-01-01T00:00:00+00:00</time>
        <ele>1476.0</ele>
      </trkpt>
      <trkpt lat="45.628045" lon="7.319666">
        <time>1970-01-01T00:00:00+00:00</time>
        <ele>1477.0</ele>
      </trkpt>
      <trkpt lat="45.628044" lon="7.319779">
        <time>1970-01-01T00:00:00+00:00</time>
        <ele>1475.0</ele>
      </trkpt>
      <trkpt lat="45.627967" lon="7.319921">
        <time>1970-01-01T00:00:00+00:00</time>
        <ele>1474.0</ele>
      </trkpt>
      <trkpt lat="45.627952" lon="7.320004">
        <time>1970-01-01T00:00:00+00:00</time>
        <ele>1473.0</ele>
      </trkpt>
      <trkpt lat="45.627953" lon="7.320112">
        <time>1970-01-01T00:00:00+00:00</time>
        <ele>1469.0</ele>
      </trkpt>
      <trkpt lat="45.627821" lon="7.320366">
        <time>1970-01-01T00:00:00+00:00</time>
        <ele>1464.0</ele>
      </trkpt>
      <trkpt lat="45.627726" lon="7.320508">
        <time>1970-01-01T00:00:00+00:00</time>
        <ele>1465.0</ele>
      </trkpt>
      <trkpt lat="45.627633" lon="7.320758">
        <time>1970-01-01T00:00:00+00:00</time>
        <ele>1461.0</ele>
      </trkpt>
      <trkpt lat="45.627584" lon="7.320823">
        <time>1970-01-01T00:00:00+00:00</time>
        <ele>1461.0</ele>
      </trkpt>
      <trkpt lat="45.627521" lon="7.321048">
        <time>1970-01-01T00:00:00+00:00</time>
        <ele>1457.0</ele>
      </trkpt>
      <trkpt lat="45.627468" lon="7.321365">
        <time>1970-01-01T00:00:00+00:00</time>
        <ele>1450.0</ele>
      </trkpt>
      <trkpt lat="45.627381" lon="7.32154">
        <time>1970-01-01T00:00:00+00:00</time>
        <ele>1446.0</ele>
      </trkpt>
      <trkpt lat="45.62738" lon="7.321658">
        <time>1970-01-01T00:00:00+00:00</time>
        <ele>1441.0</ele>
      </trkpt>
      <trkpt lat="45.627403" lon="7.321745">
        <time>1970-01-01T00:00:00+00:00</time>
        <ele>1436.0</ele>
      </trkpt>
      <trkpt lat="45.627447" lon="7.321776">
        <time>1970-01-01T00:00:00+00:00</time>
        <ele>1433.0</ele>
      </trkpt>
      <trkpt lat="45.627737" lon="7.322015">
        <time>1970-01-01T00:00:00+00:00</time>
        <ele>1419.0</ele>
      </trkpt>
      <trkpt lat="45.627766" lon="7.322104">
        <time>1970-01-01T00:00:00+00:00</time>
        <ele>1418.0</ele>
      </trkpt>
      <trkpt lat="45.627693" lon="7.322391">
        <time>1970-01-01T00:00:00+00:00</time>
        <ele>1418.0</ele>
      </trkpt>
      <trkpt lat="45.627703" lon="7.322452">
        <time>1970-01-01T00:00:00+00:00</time>
        <ele>1418.0</ele>
      </trkpt>
      <trkpt lat="45.627765" lon="7.322571">
        <time>1970-01-01T00:00:00+00:00</time>
        <ele>1419.0</ele>
      </trkpt>
    </trkseg>
  </trk>
</gpx>
